Time,TemperatureF,DewpointF,PressureIn,WindDirection,WindDirectionDegrees,WindSpeedMPH,WindSpeedGustMPH,Humidity,HourlyPrecipIn,Conditions,Clouds,dailyrainin,SoftwareType,DateUTC
2013-01-01 00:00:00,44.3,-16.1,30.07,West,271,12.7,12.7,7,0.00,CLR,,0.00,WeatherDisplay:10.37,2013-01-01 05:00:00,
2013-01-01 00:03:00,44.4,-16.1,30.07,WNW,289,11.5,11.5,7,0.00,CLR,,0.00,WeatherDisplay:10.37,2013-01-01 05:03:00,
2013-01-01 00:04:00,44.5,-16.0,30.07,West,267,10.4,10.4,7,0.00,CLR,,0.00,WeatherDisplay:10.37,2013-01-01 05:04:00,
2013-01-01 00:06:00,44.4,-16.1,30.07,WNW,288,17.0,17.0,7,0.00,CLR,,0.00,WeatherDisplay:10.37,2013-01-01 05:06:00,
2013-01-01 00:10:00,44.5,-16.0,30.06,West,281,10.6,10.6,7,0.00,CLR,,0.00,WeatherDisplay:10.37,2013-01-01 05:10:00,
2013-01-01 00:11:00,44.5,-16.0,30.06,West,268,12.7,12.7,7,0.00,CLR,,0.00,WeatherDisplay:10.37,2013-01-01 05:11:00,
2013-01-01 00:13:00,44.4,-16.1,30.07,WNW,288,11.9,11.9,7,0.00,CLR,,0.00,WeatherDisplay:10.37,2013-01-01 05:13:00,
2013-01-01 00:14:00,44.4,-16.1,30.07,West,280,12.7,12.7,7,0.00,CLR,,0.00,WeatherDisplay:10.37,2013-01-01 05:14:00,
2013-01-01 00:16:00,44.5,-16.0,30.06,NW,308,10.4,10.4,7,0.00,CLR,,0.00,WeatherDisplay:10.37,2013-01-01 05:16:00,
2013-01-01 00:18:00,44.5,-19.0,30.06,West,267,12.7,12.7,6,0.00,CLR,,0.00,WeatherDisplay:10.37,2013-01-01 05:18:00,
2013-01-01 00:19:00,44.5,-19.0,30.06,West,261,12.7,12.7,6,0.00,CLR,,0.00,WeatherDisplay:10.37,2013-01-01 05:19:00,
2013-01-01 00:21:00,44.7,-18.8,30.06,West,263,13.2,13.2,6,0.00,CLR,,0.00,WeatherDisplay:10.37,2013-01-01 05:21:00,
2013-01-01 00:23:00,44.7,-18.8,30.06,WNW,284,12.7,12.7,6,0.00,CLR,,0.00,WeatherDisplay:10.37,2013-01-01 05:23:00,
2013-01-01 00:24:00,44.5,-19.0,30.07,WNW,284,15.0,15.0,6,0.00,CLR,,0.00,WeatherDisplay:10.37,2013-01-01 05:24:00,
2013-01-01 00:25:00,44.6,-18.9,30.07,WNW,287,16.1,16.1,6,0.00,CLR,,0.00,WeatherDisplay:10.37,2013-01-01 05:25:00,
2013-01-01 00:27:00,44.6,-15.9,30.06,NW,305,11.5,11.5,7,0.00,CLR,,0.00,WeatherDisplay:10.37,2013-01-01 05:27:00,
2013-01-01 00:29:00,44.4,-19.1,30.06,West,274,16.1,16.1,6,0.00,CLR,,0.00,WeatherDisplay:10.37,2013-01-01 05:29:00,
2013-01-01 00:30:00,44.5,-19.0,30.06,WNW,285,10.0,17.0,6,0.00,CLR,,0.00,WeatherDisplay:10.37,2013-01-01 05:30:00,
2013-01-01 00:33:00,44.5,-16.0,30.06,SW,219,12.7,12.7,7,0.00,CLR,,0.00,WeatherDisplay:10.37,2013-01-01 05:33:00,
2013-01-01 00:34:00,44.5,-19.0,30.06,WSW,257,12.7,12.7,6,0.00,CLR,,0.00,WeatherDisplay:10.37,2013-01-01 05:34:00,
2013-01-01 00:35:00,44.4,-19.1,30.06,WNW,289,12.7,12.7,6,0.00,CLR,,0.00,WeatherDisplay:10.37,2013-01-01 05:35:00,
2013-01-01 00:37:00,44.4,-16.1,30.06,West,280,13.7,13.7,7,0.00,CLR,,0.00,WeatherDisplay:10.37,2013-01-01 05:37:00,
2013-01-01 00:39:00,44.4,-19.1,30.06,WNW,294,17.3,17.3,6,0.00,CLR,,0.00,WeatherDisplay:10.37,2013-01-01 05:39:00,
2013-01-01 00:40:00,44.4,-19.1,30.06,WNW,283,10.0,17.0,6,0.00,CLR,,0.00,WeatherDisplay:10.37,2013-01-01 05:40:00,
2013-01-01 00:43:00,44.4,-19.1,30.06,WNW,299,16.7,16.7,6,0.00,CLR,,0.00,WeatherDisplay:10.37,2013-01-01 05:43:00,
2013-01-01 00:45:00,44.3,-16.1,30.06,WNW,282,10.0,17.0,7,0.00,CLR,,0.00,WeatherDisplay:10.37,2013-01-01 05:45:00,
2013-01-01 00:46:00,44.2,-16.2,30.06,WNW,294,13.8,13.8,7,0.00,CLR,,0.00,WeatherDisplay:10.37,2013-01-01 05:46:00,
2013-01-01 00:48:00,44.2,-16.2,30.06,WNW,294,12.7,12.7,7,0.00,CLR,,0.00,WeatherDisplay:10.37,2013-01-01 05:48:00,
2013-01-01 00:50:00,44.2,-16.2,30.06,WNW,284,11.5,11.5,7,0.00,CLR,,0.00,WeatherDisplay:10.37,2013-01-01 05:50:00,
2013-01-01 00:54:00,44.1,-16.3,30.06,WNW,282,16.1,16.1,7,0.00,CLR,,0.00,WeatherDisplay:10.37,2013-01-01 05:54:00,
2013-01-01 00:55:00,44.0,-16.4,30.06,West,261,12.7,12.7,7,0.00,CLR,,0.00,WeatherDisplay:10.37,2013-01-01 05:55:00,
2013-01-01 00:57:00,44.0,-16.4,30.06,WSW,248,13.8,13.8,7,0.00,CLR,,0.00,WeatherDisplay:10.37,2013-01-01 05:57:00,
2013-01-01 00:59:00,44.0,-16.4,30.06,West,268,10.4,10.4,7,0.00,CLR,,0.00,WeatherDisplay:10.37,2013-01-01 05:59:00,
2013-01-01 01:01:00,43.9,-16.4,30.06,NW,309,10.4,10.4,7,0.00,CLR,,0.00,WeatherDisplay:10.37,2013-01-01 06:01:00,
2013-01-01 01:02:00,44.0,-16.4,30.06,WSW,250,12.7,12.7,7,0.00,CLR,,0.00,WeatherDisplay:10.37,2013-01-01 06:02:00,
2013-01-01 01:06:00,44.0,-16.4,30.06,NW,305,9.2,9.2,7,0.00,CLR,,0.00,WeatherDisplay:10.37,2013-01-01 06:06:00,
2013-01-01 01:07:00,43.9,-16.4,30.06,WSW,240,7.8,7.8,7,0.00,CLR,,0.00,WeatherDisplay:10.37,2013-01-01 06:07:00,
2013-01-01 01:11:00,43.9,-16.4,30.05,West,265,9.2,9.2,7,0.00,CLR,,0.00,WeatherDisplay:10.37,2013-01-01 06:11:00,
2013-01-01 01:12:00,43.9,-16.4,30.05,West,274,13.8,13.8,7,0.00,CLR,,0.00,WeatherDisplay:10.37,2013-01-01 06:12:00,
2013-01-01 01:15:00,43.8,-16.5,30.05,WNW,283,8.0,15.0,7,0.00,CLR,,0.00,WeatherDisplay:10.37,2013-01-01 06:15:00,
2013-01-01 01:17:00,43.7,-16.6,30.05,West,272,12.7,12.7,7,0.00,CLR,,0.00,WeatherDisplay:10.37,2013-01-01 06:17:00,
2013-01-01 01:18:00,43.9,-16.4,30.05,WNW,284,12.7,12.7,7,0.00,CLR,,0.00,WeatherDisplay:10.37,2013-01-01 06:18:00,
2013-01-01 01:19:00,43.9,-16.4,30.05,WSW,237,12.7,12.7,7,0.00,CLR,,0.00,WeatherDisplay:10.37,2013-01-01 06:19:00,
2013-01-01 01:22:00,43.9,-16.4,30.05,WNW,296,9.2,9.2,7,0.00,CLR,,0.00,WeatherDisplay:10.37,2013-01-01 06:22:00,
2013-01-01 01:23:00,43.8,-16.5,30.05,WNW,288,9.2,9.2,7,0.00,CLR,,0.00,WeatherDisplay:10.37,2013-01-01 06:23:00,
2013-01-01 01:25:00,43.7,-16.6,30.04,West,281,8.1,8.1,7,0.00,CLR,,0.00,WeatherDisplay:10.37,2013-01-01 06:25:00,
2013-01-01 01:28:00,43.6,-16.7,30.04,NW,315,8.1,8.1,7,0.00,CLR,,0.00,WeatherDisplay:10.37,2013-01-01 06:28:00,
2013-01-01 01:30:00,43.6,-16.6,30.04,WNW,287,7.0,10.0,7,0.00,CLR,,0.00,WeatherDisplay:10.37,2013-01-01 06:30:00,
2013-01-01 01:33:00,43.7,-16.6,30.04,SW,232,8.1,8.1,7,0.00,CLR,,0.00,WeatherDisplay:10.37,2013-01-01 06:33:00,
2013-01-01 01:34:00,43.6,-14.0,30.04,West,277,6.9,6.9,8,0.00,CLR,,0.00,WeatherDisplay:10.37,2013-01-01 06:34:00,
2013-01-01 01:35:00,43.7,-16.6,30.04,WNW,289,2.0,9.0,7,0.00,CLR,,0.00,WeatherDisplay:10.37,2013-01-01 06:35:00,
2013-01-01 01:36:00,43.6,-16.7,30.04,NW,312,6.9,6.9,7,0.00,CLR,,0.00,WeatherDisplay:10.37,2013-01-01 06:36:00,
2013-01-01 01:38:00,43.6,-14.0,30.03,WSW,250,6.9,0.0,8,0.00,CLR,,0.00,WeatherDisplay:10.37,2013-01-01 06:38:00,
2013-01-01 01:40:00,43.6,-16.7,30.03,WSW,250,0.0,0.0,7,0.00,CLR,,0.00,WeatherDisplay:10.37,2013-01-01 06:40:00,
2013-01-01 01:43:00,43.6,-16.7,30.03,WNW,299,5.8,0.0,7,0.00,CLR,,0.00,WeatherDisplay:10.37,2013-01-01 06:43:00,
2013-01-01 01:47:00,43.7,-16.6,30.03,West,270,4.6,4.6,7,0.00,CLR,,0.00,WeatherDisplay:10.37,2013-01-01 06:47:00,
2013-01-01 01:49:00,43.7,-16.6,30.03,West,270,0.0,0.0,7,0.00,CLR,,0.00,WeatherDisplay:10.37,2013-01-01 06:49:00,
2013-01-01 01:50:00,43.7,-16.6,30.03,WNW,286,0.0,6.0,7,0.00,CLR,,0.00,WeatherDisplay:10.37,2013-01-01 06:50:00,
2013-01-01 01:52:00,43.7,-13.9,30.03,West,270,0.0,0.0,8,0.00,CLR,,0.00,WeatherDisplay:10.37,2013-01-01 06:52:00,
2013-01-01 01:54:00,43.7,-13.9,30.03,West,270,0.0,0.0,8,0.00,CLR,,0.00,WeatherDisplay:10.37,2013-01-01 06:54:00,
2013-01-01 01:56:00,43.4,-14.2,30.03,West,270,0.0,0.0,8,0.00,CLR,,0.00,WeatherDisplay:10.37,2013-01-01 06:56:00,
2013-01-01 01:58:00,43.5,-14.1,30.04,West,270,0.0,0.0,8,0.00,CLR,,0.00,WeatherDisplay:10.37,2013-01-01 06:58:00,
2013-01-01 01:59:00,43.5,-14.1,30.04,West,270,0.0,0.0,8,0.00,CLR,,0.00,WeatherDisplay:10.37,2013-01-01 06:59:00,
2013-01-01 02:00:00,43.5,-14.1,30.04,West,270,0.0,0.0,8,0.00,CLR,,0.00,WeatherDisplay:10.37,2013-01-01 07:00:00,
2013-01-01 02:02:00,43.3,-14.2,30.04,West,270,0.0,0.0,8,0.00,CLR,,0.00,WeatherDisplay:10.37,2013-01-01 07:02:00,
2013-01-01 02:03:00,43.3,-14.2,30.05,West,270,0.0,0.0,8,0.00,CLR,,0.00,WeatherDisplay:10.37,2013-01-01 07:03:00,
2013-01-01 02:04:00,43.2,-14.3,30.05,WNW,296,4.6,0.0,8,0.00,CLR,,0.00,WeatherDisplay:10.37,2013-01-01 07:04:00,
2013-01-01 02:05:00,43.2,-14.3,30.05,West,277,1.0,5.0,8,0.00,CLR,,0.00,WeatherDisplay:10.37,2013-01-01 07:05:00,
2013-01-01 02:08:00,43.3,-14.2,30.05,WNW,296,0.0,0.0,8,0.00,CLR,,0.00,WeatherDisplay:10.37,2013-01-01 07:08:00,
2013-01-01 02:10:00,43.4,-14.2,30.05,WNW,290,0.0,0.0,8,0.00,CLR,,0.00,WeatherDisplay:10.37,2013-01-01 07:10:00,
2013-01-01 02:12:00,43.3,-16.9,30.04,WNW,296,0.0,0.0,7,0.00,CLR,,0.00,WeatherDisplay:10.37,2013-01-01 07:12:00,
2013-01-01 02:14:00,43.4,-14.2,30.03,WNW,296,0.0,0.0,8,0.00,CLR,,0.00,WeatherDisplay:10.37,2013-01-01 07:14:00,
2013-01-01 02:15:00,43.5,-14.1,30.03,WNW,296,0.0,0.0,8,0.00,CLR,,0.00,WeatherDisplay:10.37,2013-01-01 07:15:00,
2013-01-01 02:16:00,43.4,-16.8,30.03,WNW,296,0.0,0.0,7,0.00,CLR,,0.00,WeatherDisplay:10.37,2013-01-01 07:16:00,
2013-01-01 02:17:00,43.5,-14.1,30.03,WNW,296,0.0,0.0,8,0.00,CLR,,0.00,WeatherDisplay:10.37,2013-01-01 07:17:00,
2013-01-01 02:20:00,43.5,-16.7,30.03,WNW,296,0.0,0.0,7,0.00,CLR,,0.00,WeatherDisplay:10.37,2013-01-01 07:20:00,
2013-01-01 02:22:00,43.5,-16.7,30.03,WNW,296,0.0,0.0,7,0.00,CLR,,0.00,WeatherDisplay:10.37,2013-01-01 07:22:00,
2013-01-01 02:24:00,43.6,-14.0,30.03,WNW,296,0.0,0.0,8,0.00,CLR,,0.00,WeatherDisplay:10.37,2013-01-01 07:24:00,
2013-01-01 02:25:00,43.5,-16.7,30.03,WNW,296,0.0,0.0,7,0.00,CLR,,0.00,WeatherDisplay:10.37,2013-01-01 07:25:00,
2013-01-01 02:26:00,43.6,-16.7,30.03,WNW,296,0.0,0.0,7,0.00,CLR,,0.00,WeatherDisplay:10.37,2013-01-01 07:26:00,
2013-01-01 02:28:00,43.6,-14.0,30.03,WNW,296,0.0,0.0,8,0.00,CLR,,0.00,WeatherDisplay:10.37,2013-01-01 07:28:00,
2013-01-01 02:30:00,43.5,-14.1,30.03,WNW,296,0.0,0.0,8,0.00,CLR,,0.00,WeatherDisplay:10.37,2013-01-01 07:30:00,
2013-01-01 02:31:00,43.4,-16.8,30.03,WNW,296,0.0,0.0,7,0.00,CLR,,0.00,WeatherDisplay:10.37,2013-01-01 07:31:00,
2013-01-01 02:33:00,43.5,-11.7,30.03,WNW,296,0.0,0.0,9,0.00,CLR,,0.00,WeatherDisplay:10.37,2013-01-01 07:33:00,
2013-01-01 02:35:00,43.4,-14.2,30.03,WNW,296,0.0,0.0,8,0.00,CLR,,0.00,WeatherDisplay:10.37,2013-01-01 07:35:00,
2013-01-01 02:37:00,43.3,-14.2,30.03,WNW,296,0.0,0.0,8,0.00,CLR,,0.00,WeatherDisplay:10.37,2013-01-01 07:37:00,
2013-01-01 02:38:00,43.3,-14.2,30.03,WNW,296,0.0,0.0,8,0.00,CLR,,0.00,WeatherDisplay:10.37,2013-01-01 07:38:00,
2013-01-01 02:40:00,43.2,-12.0,30.04,WNW,296,0.0,0.0,9,0.00,CLR,,0.00,WeatherDisplay:10.37,2013-01-01 07:40:00,
2013-01-01 02:43:00,43.2,-14.3,30.04,WNW,294,6.1,6.1,8,0.00,CLR,,0.00,WeatherDisplay:10.37,2013-01-01 07:43:00,
2013-01-01 02:44:00,43.3,-14.2,30.04,WSW,246,8.1,8.1,8,0.00,CLR,,0.00,WeatherDisplay:10.37,2013-01-01 07:44:00,
2013-01-01 02:45:00,43.3,-14.3,30.04,West,281,3.0,8.0,8,0.00,CLR,,0.00,WeatherDisplay:10.37,2013-01-01 07:45:00,
2013-01-01 02:48:00,43.4,-14.2,30.05,WNW,295,0.0,0.0,8,0.00,CLR,,0.00,WeatherDisplay:10.37,2013-01-01 07:48:00,
2013-01-01 02:49:00,43.4,-14.2,30.05,WNW,295,0.0,0.0,8,0.00,CLR,,0.00,WeatherDisplay:10.37,2013-01-01 07:49:00,
2013-01-01 02:50:00,43.5,-11.7,30.05,WNW,295,0.0,0.0,9,0.00,CLR,,0.00,WeatherDisplay:10.37,2013-01-01 07:50:00,
2013-01-01 02:53:00,43.5,-16.7,30.05,WNW,296,4.6,4.6,7,0.00,CLR,,0.00,WeatherDisplay:10.37,2013-01-01 07:53:00,
2013-01-01 02:55:00,43.6,-14.0,30.05,West,277,5.8,5.8,8,0.00,CLR,,0.00,WeatherDisplay:10.37,2013-01-01 07:55:00,
2013-01-01 02:56:00,43.6,-11.7,30.05,WNW,292,4.6,4.6,9,0.00,CLR,,0.00,WeatherDisplay:10.37,2013-01-01 07:56:00,
2013-01-01 02:59:00,43.6,-14.0,30.05,WSW,246,0.0,0.0,8,0.00,CLR,,0.00,WeatherDisplay:10.37,2013-01-01 07:59:00,
2013-01-01 03:00:00,43.6,-14.0,30.05,West,277,0.0,5.0,8,0.00,CLR,,0.00,WeatherDisplay:10.37,2013-01-01 08:00:00,
2013-01-01 03:04:00,43.7,-16.6,30.04,WSW,246,0.0,0.0,7,0.00,CLR,,0.00,WeatherDisplay:10.37,2013-01-01 08:04:00,
2013-01-01 03:05:00,43.8,-16.5,30.05,WSW,246,0.0,0.0,7,0.00,CLR,,0.00,WeatherDisplay:10.37,2013-01-01 08:05:00,
2013-01-01 03:06:00,43.7,-16.6,30.04,WSW,246,0.0,0.0,7,0.00,CLR,,0.00,WeatherDisplay:10.37,2013-01-01 08:06:00,
2013-01-01 03:10:00,44.0,-16.4,30.04,WSW,246,0.0,0.0,7,0.00,CLR,,0.00,WeatherDisplay:10.37,2013-01-01 08:10:00,
2013-01-01 03:12:00,44.0,-16.4,30.04,WSW,246,0.0,0.0,7,0.00,CLR,,0.00,WeatherDisplay:10.37,2013-01-01 08:12:00,
2013-01-01 03:13:00,44.1,-16.3,30.04,WSW,246,0.0,0.0,7,0.00,CLR,,0.00,WeatherDisplay:10.37,2013-01-01 08:13:00,
2013-01-01 03:16:00,44.2,-13.6,30.04,WSW,246,0.0,0.0,8,0.00,CLR,,0.00,WeatherDisplay:10.37,2013-01-01 08:16:00,
2013-01-01 03:17:00,44.0,-13.7,30.04,WSW,246,0.0,0.0,8,0.00,CLR,,0.00,WeatherDisplay:10.37,2013-01-01 08:17:00,
2013-01-01 03:19:00,44.0,-16.4,30.04,WSW,246,0.0,0.0,7,0.00,CLR,,0.00,WeatherDisplay:10.37,2013-01-01 08:19:00,
2013-01-01 03:23:00,44.0,-16.4,30.04,WSW,246,0.0,0.0,7,0.00,CLR,,0.00,WeatherDisplay:10.37,2013-01-01 08:23:00,
2013-01-01 03:24:00,43.9,-16.4,30.04,WSW,246,0.0,0.0,7,0.00,CLR,,0.00,WeatherDisplay:10.37,2013-01-01 08:24:00,
2013-01-01 03:25:00,44.1,-16.3,30.04,WSW,246,0.0,0.0,7,0.00,CLR,,0.00,WeatherDisplay:10.37,2013-01-01 08:25:00,
2013-01-01 03:29:00,44.1,-16.3,30.03,WSW,246,0.0,0.0,7,0.00,CLR,,0.00,WeatherDisplay:10.37,2013-01-01 08:29:00,
2013-01-01 03:30:00,44.0,-13.7,30.03,WSW,246,0.0,0.0,8,0.00,CLR,,0.00,WeatherDisplay:10.37,2013-01-01 08:30:00,
2013-01-01 03:31:00,44.0,-16.4,30.03,WSW,246,0.0,0.0,7,0.00,CLR,,0.00,WeatherDisplay:10.37,2013-01-01 08:31:00,
2013-01-01 03:34:00,44.4,-16.1,30.03,WSW,246,0.0,0.0,7,0.00,CLR,,0.00,WeatherDisplay:10.37,2013-01-01 08:34:00,
2013-01-01 03:36:00,44.3,-16.1,30.03,WSW,246,0.0,0.0,7,0.00,CLR,,0.00,WeatherDisplay:10.37,2013-01-01 08:36:00,
2013-01-01 03:39:00,44.3,-16.1,30.04,WSW,246,0.0,0.0,7,0.00,CLR,,0.00,WeatherDisplay:10.37,2013-01-01 08:39:00,
2013-01-01 03:41:00,44.3,-13.5,30.04,WSW,246,0.0,0.0,8,0.00,CLR,,0.00,WeatherDisplay:10.37,2013-01-01 08:41:00,
2013-01-01 03:42:00,44.3,-13.5,30.05,WSW,246,0.0,0.0,8,0.00,CLR,,0.00,WeatherDisplay:10.37,2013-01-01 08:42:00,
2013-01-01 03:43:00,44.2,-13.6,30.05,WSW,246,0.0,0.0,8,0.00,CLR,,0.00,WeatherDisplay:10.37,2013-01-01 08:43:00,
2013-01-01 03:46:00,44.2,-13.6,30.05,WSW,246,0.0,0.0,8,0.00,CLR,,0.00,WeatherDisplay:10.37,2013-01-01 08:46:00,
2013-01-01 03:48:00,44.1,-16.3,30.05,WSW,246,0.0,0.0,7,0.00,CLR,,0.00,WeatherDisplay:10.37,2013-01-01 08:48:00,
2013-01-01 03:51:00,44.0,-13.7,30.05,WSW,246,0.0,0.0,8,0.00,CLR,,0.00,WeatherDisplay:10.37,2013-01-01 08:51:00,
2013-01-01 03:52:00,44.0,-13.7,30.05,WSW,246,0.0,0.0,8,0.00,CLR,,0.00,WeatherDisplay:10.37,2013-01-01 08:52:00,
2013-01-01 03:53:00,44.1,-13.6,30.05,NW,311,4.6,4.6,8,0.00,CLR,,0.00,WeatherDisplay:10.37,2013-01-01 08:53:00,
2013-01-01 03:56:00,44.1,-13.6,30.04,NW,311,0.0,0.0,8,0.00,CLR,,0.00,WeatherDisplay:10.37,2013-01-01 08:56:00,
2013-01-01 03:58:00,44.0,-11.4,30.05,NW,311,0.0,0.0,9,0.00,CLR,,0.00,WeatherDisplay:10.37,2013-01-01 08:58:00,
2013-01-01 03:59:00,44.1,-13.6,30.05,NW,311,0.0,0.0,8,0.00,CLR,,0.00,WeatherDisplay:10.37,2013-01-01 08:59:00,
2013-01-01 04:02:00,44.1,-11.3,30.05,WNW,302,2.3,0.0,9,0.00,CLR,,0.00,WeatherDisplay:10.37,2013-01-01 09:02:00,
2013-01-01 04:05:00,44.0,-11.3,30.05,NW,306,0.0,5.0,9,0.00,CLR,,0.00,WeatherDisplay:10.37,2013-01-01 09:05:00,
2013-01-01 04:06:00,44.0,-11.4,30.05,WNW,302,0.0,0.0,9,0.00,CLR,,0.00,WeatherDisplay:10.37,2013-01-01 09:06:00,
2013-01-01 04:08:00,43.9,-9.3,30.05,WNW,302,0.0,0.0,10,0.00,CLR,,0.00,WeatherDisplay:10.37,2013-01-01 09:08:00,
2013-01-01 04:10:00,43.9,-11.4,30.05,WNW,302,0.0,0.0,9,0.00,CLR,,0.00,WeatherDisplay:10.37,2013-01-01 09:10:00,
2013-01-01 04:11:00,43.9,-11.4,30.05,WNW,302,0.0,0.0,9,0.00,CLR,,0.00,WeatherDisplay:10.37,2013-01-01 09:11:00,
2013-01-01 04:12:00,44.0,-9.2,30.05,WNW,302,0.0,0.0,10,0.00,CLR,,0.00,WeatherDisplay:10.37,2013-01-01 09:12:00,
2013-01-01 04:14:00,43.9,-9.3,30.05,WNW,302,0.0,0.0,10,0.00,CLR,,0.00,WeatherDisplay:10.37,2013-01-01 09:14:00,
2013-01-01 04:16:00,44.0,-9.2,30.05,WNW,302,0.0,0.0,10,0.00,CLR,,0.00,WeatherDisplay:10.37,2013-01-01 09:16:00,
2013-01-01 04:17:00,44.0,-9.2,30.05,WNW,302,0.0,0.0,10,0.00,CLR,,0.00,WeatherDisplay:10.37,2013-01-01 09:17:00,
2013-01-01 04:18:00,43.9,-7.3,30.05,WNW,302,0.0,0.0,11,0.00,CLR,,0.00,WeatherDisplay:10.37,2013-01-01 09:18:00,
2013-01-01 04:20:00,43.9,-5.5,30.05,WNW,302,0.0,0.0,12,0.00,CLR,,0.00,WeatherDisplay:10.37,2013-01-01 09:20:00,
2013-01-01 04:23:00,43.6,-2.6,30.04,WNW,302,0.0,0.0,14,0.00,CLR,,0.00,WeatherDisplay:10.37,2013-01-01 09:23:00,
2013-01-01 04:26:00,43.6,-4.1,30.03,WNW,302,0.0,0.0,13,0.00,CLR,,0.00,WeatherDisplay:10.37,2013-01-01 09:26:00,
2013-01-01 04:28:00,43.5,-4.2,30.03,WNW,302,0.0,0.0,13,0.00,CLR,,0.00,WeatherDisplay:10.37,2013-01-01 09:28:00,
2013-01-01 04:30:00,43.5,-2.6,30.03,WNW,302,0.0,0.0,14,0.00,CLR,,0.00,WeatherDisplay:10.37,2013-01-01 09:30:00,
2013-01-01 04:31:00,43.5,0.2,30.03,WNW,302,0.0,0.0,16,0.00,CLR,,0.00,WeatherDisplay:10.37,2013-01-01 09:31:00,
2013-01-01 04:32:00,43.5,0.2,30.04,WNW,289,2.7,2.7,16,0.00,CLR,,0.00,WeatherDisplay:10.37,2013-01-01 09:32:00,
2013-01-01 04:33:00,43.4,-1.3,30.04,WNW,282,6.9,6.9,15,0.00,CLR,,0.00,WeatherDisplay:10.37,2013-01-01 09:33:00,
2013-01-01 04:36:00,43.3,0.0,30.03,WNW,285,9.3,9.3,16,0.00,CLR,,0.00,WeatherDisplay:10.37,2013-01-01 09:36:00,
2013-01-01 04:37:00,43.3,2.6,30.04,West,280,9.2,9.2,18,0.00,CLR,,0.00,WeatherDisplay:10.37,2013-01-01 09:37:00,
2013-01-01 04:38:00,43.5,2.7,30.03,West,270,8.1,8.1,18,0.00,CLR,,0.00,WeatherDisplay:10.37,2013-01-01 09:38:00,
2013-01-01 04:40:00,43.4,2.6,30.03,WNW,284,3.0,9.0,18,0.00,CLR,,0.00,WeatherDisplay:10.37,2013-01-01 09:40:00,
2013-01-01 04:42:00,43.4,6.0,30.04,WSW,246,5.8,5.8,21,0.00,CLR,,0.00,WeatherDisplay:10.37,2013-01-01 09:42:00,
2013-01-01 04:43:00,43.4,7.0,30.04,NW,306,9.4,9.4,22,0.00,CLR,,0.00,WeatherDisplay:10.37,2013-01-01 09:43:00,
2013-01-01 04:44:00,43.4,6.0,30.04,WNW,291,13.8,13.8,21,0.00,CLR,,0.00,WeatherDisplay:10.37,2013-01-01 09:44:00,
2013-01-01 04:45:00,43.3,6.9,30.04,West,267,10.4,10.4,22,0.00,CLR,,0.00,WeatherDisplay:10.37,2013-01-01 09:45:00,
2013-01-01 04:49:00,43.3,7.9,30.03,NNW,347,10.4,10.4,23,0.00,CLR,,0.00,WeatherDisplay:10.37,2013-01-01 09:49:00,
2013-01-01 04:50:00,43.4,7.0,30.03,West,267,9.2,0.0,22,0.00,CLR,,0.00,WeatherDisplay:10.37,2013-01-01 09:50:00,
2013-01-01 04:55:00,43.4,8.0,30.01,WSW,253,10.4,10.4,23,0.00,CLR,,0.00,WeatherDisplay:10.37,2013-01-01 09:55:00,
2013-01-01 04:56:00,43.5,8.1,30.00,West,280,5.5,5.5,23,0.00,CLR,,0.00,WeatherDisplay:10.37,2013-01-01 09:56:00,
2013-01-01 04:57:00,43.4,7.0,30.00,NW,308,6.9,6.9,22,0.00,CLR,,0.00,WeatherDisplay:10.37,2013-01-01 09:57:00,
2013-01-01 05:00:00,43.3,7.9,30.02,WNW,285,5.0,9.0,23,0.00,CLR,,0.00,WeatherDisplay:10.37,2013-01-01 10:00:00,
2013-01-01 05:01:00,43.5,8.1,30.03,NW,309,5.8,5.8,23,0.00,CLR,,0.00,WeatherDisplay:10.37,2013-01-01 10:01:00,
2013-01-01 05:02:00,43.3,8.9,30.03,NW,304,5.5,5.5,24,0.00,CLR,,0.00,WeatherDisplay:10.37,2013-01-01 10:02:00,
2013-01-01 05:04:00,43.3,7.9,30.03,WNW,301,6.9,6.9,23,0.00,CLR,,0.00,WeatherDisplay:10.37,2013-01-01 10:04:00,
2013-01-01 05:07:00,43.3,8.9,30.03,NW,315,0.0,0.0,24,0.00,CLR,,0.00,WeatherDisplay:10.37,2013-01-01 10:07:00,
2013-01-01 05:08:00,43.3,7.9,30.03,WNW,292,7.8,7.8,23,0.00,CLR,,0.00,WeatherDisplay:10.37,2013-01-01 10:08:00,
2013-01-01 05:09:00,43.4,8.0,30.03,WNW,301,9.2,9.2,23,0.00,CLR,,0.00,WeatherDisplay:10.37,2013-01-01 10:09:00,
2013-01-01 05:13:00,43.3,6.9,30.02,NW,316,9.7,9.7,22,0.00,CLR,,0.00,WeatherDisplay:10.37,2013-01-01 10:13:00,
2013-01-01 05:15:00,43.4,8.0,30.02,WNW,303,5.0,13.0,23,0.00,CLR,,0.00,WeatherDisplay:10.37,2013-01-01 10:15:00,
2013-01-01 05:16:00,43.6,8.2,30.02,NW,304,0.0,0.0,23,0.00,CLR,,0.00,WeatherDisplay:10.37,2013-01-01 10:16:00,
2013-01-01 05:18:00,43.6,6.2,30.02,West,281,8.7,8.7,21,0.00,CLR,,0.00,WeatherDisplay:10.37,2013-01-01 10:18:00,
2013-01-01 05:21:00,43.6,7.2,30.01,West,270,5.8,5.8,22,0.00,CLR,,0.00,WeatherDisplay:10.37,2013-01-01 10:21:00,
2013-01-01 05:23:00,43.7,8.3,30.01,WNW,302,0.0,0.0,23,0.00,CLR,,0.00,WeatherDisplay:10.37,2013-01-01 10:23:00,
2013-01-01 05:24:00,43.6,7.2,30.01,West,270,4.7,4.7,22,0.00,CLR,,0.00,WeatherDisplay:10.37,2013-01-01 10:24:00,
2013-01-01 05:28:00,43.6,7.2,30.01,West,263,9.2,9.2,22,0.00,CLR,,0.00,WeatherDisplay:10.37,2013-01-01 10:28:00,
2013-01-01 05:29:00,43.7,6.2,30.01,West,270,7.0,7.0,21,0.00,CLR,,0.00,WeatherDisplay:10.37,2013-01-01 10:29:00,
2013-01-01 05:30:00,43.6,7.2,30.01,WNW,286,5.0,14.0,22,0.00,CLR,,0.00,WeatherDisplay:10.37,2013-01-01 10:30:00,
2013-01-01 05:34:00,43.6,6.2,30.01,WNW,288,12.7,12.7,21,0.00,CLR,,0.00,WeatherDisplay:10.37,2013-01-01 10:34:00,
2013-01-01 05:35:00,43.7,7.3,30.01,WNW,287,14.2,14.2,22,0.00,CLR,,0.00,WeatherDisplay:10.37,2013-01-01 10:35:00,
2013-01-01 05:36:00,43.6,7.2,30.01,West,274,15.0,15.0,22,0.00,CLR,,0.00,WeatherDisplay:10.37,2013-01-01 10:36:00,
2013-01-01 05:37:00,43.8,7.4,30.01,WNW,285,15.0,15.0,22,0.00,CLR,,0.00,WeatherDisplay:10.37,2013-01-01 10:37:00,
2013-01-01 05:41:00,43.7,7.3,30.01,NW,305,12.7,12.7,22,0.00,CLR,,0.00,WeatherDisplay:10.37,2013-01-01 10:41:00,
2013-01-01 05:42:00,43.7,7.3,30.01,West,260,8.1,8.1,22,0.00,CLR,,0.00,WeatherDisplay:10.37,2013-01-01 10:42:00,
2013-01-01 05:43:00,43.7,7.3,30.01,West,267,8.1,8.1,22,0.00,CLR,,0.00,WeatherDisplay:10.37,2013-01-01 10:43:00,
2013-01-01 05:44:00,43.6,7.2,30.01,WSW,237,9.9,9.9,22,0.00,CLR,,0.00,WeatherDisplay:10.37,2013-01-01 10:44:00,
2013-01-01 05:48:00,43.6,6.2,30.01,WSW,241,11.3,11.3,21,0.00,CLR,,0.00,WeatherDisplay:10.37,2013-01-01 10:48:00,
2013-01-01 05:50:00,43.5,6.1,30.01,West,281,11.5,11.5,21,0.00,CLR,,0.00,WeatherDisplay:10.37,2013-01-01 10:50:00,
2013-01-01 05:51:00,43.4,6.0,30.01,WNW,282,11.5,11.5,21,0.00,CLR,,0.00,WeatherDisplay:10.37,2013-01-01 10:51:00,
2013-01-01 05:53:00,43.5,6.1,30.01,WSW,250,15.7,15.7,21,0.00,CLR,,0.00,WeatherDisplay:10.37,2013-01-01 10:53:00,
2013-01-01 05:56:00,43.3,6.9,30.01,WNW,282,10.8,10.8,22,0.00,CLR,,0.00,WeatherDisplay:10.37,2013-01-01 10:56:00,
2013-01-01 06:00:00,43.3,6.9,30.02,WNW,283,9.0,15.0,22,0.00,CLR,,0.00,WeatherDisplay:10.37,2013-01-01 11:00:00,
2013-01-01 06:01:00,43.3,5.9,30.02,WNW,302,16.3,16.3,21,0.00,CLR,,0.00,WeatherDisplay:10.37,2013-01-01 11:01:00,
2013-01-01 06:02:00,43.2,6.8,30.02,WNW,292,15.0,15.0,22,0.00,CLR,,0.00,WeatherDisplay:10.37,2013-01-01 11:02:00,
2013-01-01 06:06:00,43.2,6.8,30.01,West,267,16.1,16.1,22,0.00,CLR,,0.00,WeatherDisplay:10.37,2013-01-01 11:06:00,
2013-01-01 06:08:00,43.3,6.9,30.01,WSW,256,16.1,16.1,22,0.00,CLR,,0.00,WeatherDisplay:10.37,2013-01-01 11:08:00,
2013-01-01 06:11:00,43.3,6.9,30.01,West,272,13.8,13.8,22,0.00,CLR,,0.00,WeatherDisplay:10.37,2013-01-01 11:11:00,
2013-01-01 06:14:00,43.0,6.7,30.01,WNW,302,16.1,16.1,22,0.00,CLR,,0.00,WeatherDisplay:10.37,2013-01-01 11:14:00,
2013-01-01 06:15:00,43.0,6.7,30.01,West,281,8.0,16.0,22,0.00,CLR,,0.00,WeatherDisplay:10.37,2013-01-01 11:15:00,
2013-01-01 06:18:00,43.0,6.7,30.01,West,278,13.8,13.8,22,0.00,CLR,,0.00,WeatherDisplay:10.37,2013-01-01 11:18:00,
2013-01-01 06:19:00,43.1,6.8,30.00,West,263,12.7,12.7,22,0.00,CLR,,0.00,WeatherDisplay:10.37,2013-01-01 11:19:00,
2013-01-01 06:20:00,43.0,6.7,30.01,West,279,9.0,14.0,22,0.00,CLR,,0.00,WeatherDisplay:10.37,2013-01-01 11:20:00,
2013-01-01 06:22:00,43.1,7.7,30.00,NW,322,13.8,13.8,23,0.00,CLR,,0.00,WeatherDisplay:10.37,2013-01-01 11:22:00,
2013-01-01 06:24:00,43.0,6.7,30.01,West,270,14.5,14.5,22,0.00,CLR,,0.00,WeatherDisplay:10.37,2013-01-01 11:24:00,
2013-01-01 06:25:00,43.0,6.7,30.01,WNW,296,15.0,15.0,22,0.00,CLR,,0.00,WeatherDisplay:10.37,2013-01-01 11:25:00,
2013-01-01 06:28:00,43.0,6.7,30.02,WNW,302,8.1,8.1,22,0.00,CLR,,0.00,WeatherDisplay:10.37,2013-01-01 11:28:00,
2013-01-01 06:29:00,42.9,6.6,30.02,WNW,287,12.7,12.7,22,0.00,CLR,,0.00,WeatherDisplay:10.37,2013-01-01 11:29:00,
2013-01-01 06:32:00,42.9,6.6,30.01,West,280,9.2,9.2,22,0.00,CLR,,0.00,WeatherDisplay:10.37,2013-01-01 11:32:00,
2013-01-01 06:34:00,43.0,7.7,30.01,West,271,10.4,10.4,23,0.00,CLR,,0.00,WeatherDisplay:10.37,2013-01-01 11:34:00,
2013-01-01 06:36:00,43.0,7.7,30.01,NNW,329,9.2,9.2,23,0.00,CLR,,0.00,WeatherDisplay:10.37,2013-01-01 11:36:00,
2013-01-01 06:38:00,43.1,7.7,30.01,WNW,289,6.9,6.9,23,0.00,CLR,,0.00,WeatherDisplay:10.37,2013-01-01 11:38:00,
2013-01-01 06:40:00,43.0,7.7,30.01,WNW,291,5.0,9.0,23,0.00,CLR,,0.00,WeatherDisplay:10.37,2013-01-01 11:40:00,
2013-01-01 06:43:00,43.0,7.7,30.01,WNW,284,10.4,10.4,23,0.00,CLR,,0.00,WeatherDisplay:10.37,2013-01-01 11:43:00,
2013-01-01 06:45:00,43.0,7.6,30.01,WNW,288,7.0,13.0,23,0.00,CLR,,0.00,WeatherDisplay:10.37,2013-01-01 11:45:00,
2013-01-01 06:48:00,42.9,7.6,30.00,WNW,292,11.5,11.5,23,0.00,CLR,,0.00,WeatherDisplay:10.37,2013-01-01 11:48:00,
2013-01-01 06:50:00,42.9,7.6,30.00,West,270,12.1,12.1,23,0.00,CLR,,0.00,WeatherDisplay:10.37,2013-01-01 11:50:00,
2013-01-01 06:51:00,42.9,7.6,30.00,NW,309,12.7,12.7,23,0.00,CLR,,0.00,WeatherDisplay:10.37,2013-01-01 11:51:00,
2013-01-01 06:55:00,42.8,7.5,30.00,NW,305,10.4,10.4,23,0.00,CLR,,0.00,WeatherDisplay:10.37,2013-01-01 11:55:00,
2013-01-01 06:57:00,42.8,8.4,30.00,West,270,15.0,15.0,24,0.00,CLR,,0.00,WeatherDisplay:10.37,2013-01-01 11:57:00,
2013-01-01 07:01:00,42.8,7.5,30.00,NW,320,9.2,9.2,23,0.00,CLR,,0.00,WeatherDisplay:10.37,2013-01-01 12:01:00,
2013-01-01 07:02:00,42.9,8.5,30.00,West,281,8.1,8.1,24,0.00,CLR,,0.00,WeatherDisplay:10.37,2013-01-01 12:02:00,
2013-01-01 07:03:00,42.9,8.5,30.00,West,274,6.2,6.2,24,0.00,CLR,,0.00,WeatherDisplay:10.37,2013-01-01 12:03:00,
2013-01-01 07:06:00,42.7,7.4,30.01,NW,305,10.4,10.4,23,0.00,CLR,,0.00,WeatherDisplay:10.37,2013-01-01 12:06:00,
2013-01-01 07:07:00,42.6,8.3,30.01,WSW,258,11.5,11.5,24,0.00,CLR,,0.00,WeatherDisplay:10.37,2013-01-01 12:07:00,
2013-01-01 07:08:00,42.7,7.4,30.01,NW,318,13.8,13.8,23,0.00,CLR,,0.00,WeatherDisplay:10.37,2013-01-01 12:08:00,
2013-01-01 07:09:00,42.7,7.4,30.01,WNW,299,12.7,12.7,23,0.00,CLR,,0.00,WeatherDisplay:10.37,2013-01-01 12:09:00,
2013-01-01 07:13:00,42.6,7.3,30.01,WNW,295,11.5,11.5,23,0.00,CLR,,0.00,WeatherDisplay:10.37,2013-01-01 12:13:00,
2013-01-01 07:15:00,42.5,8.2,30.01,WNW,292,10.4,10.4,24,0.00,CLR,,0.00,WeatherDisplay:10.37,2013-01-01 12:15:00,
2013-01-01 07:16:00,42.6,8.3,30.01,West,265,10.4,10.4,24,0.00,CLR,,0.00,WeatherDisplay:10.37,2013-01-01 12:16:00,
2013-01-01 07:19:00,42.6,9.2,30.01,NW,316,9.2,9.2,25,0.00,CLR,,0.00,WeatherDisplay:10.37,2013-01-01 12:19:00,
2013-01-01 07:20:00,42.6,9.1,30.01,WNW,288,6.0,13.0,25,0.00,CLR,,0.00,WeatherDisplay:10.37,2013-01-01 12:20:00,
2013-01-01 07:24:00,42.5,10.0,30.01,WNW,287,8.1,8.1,26,0.00,CLR,,0.00,WeatherDisplay:10.37,2013-01-01 12:24:00,
2013-01-01 07:25:00,42.4,9.9,30.01,WNW,296,6.0,11.0,26,0.00,CLR,,0.00,WeatherDisplay:10.37,2013-01-01 12:25:00,
2013-01-01 07:28:00,42.4,9.9,30.01,NW,320,11.5,11.5,26,0.00,CLR,,0.00,WeatherDisplay:10.37,2013-01-01 12:28:00,
2013-01-01 07:30:00,42.3,11.5,30.02,NW,308,12.7,12.7,28,0.00,CLR,,0.00,WeatherDisplay:10.37,2013-01-01 12:30:00,
2013-01-01 07:31:00,42.3,11.5,30.02,WNW,299,12.7,12.7,28,0.00,CLR,,0.00,WeatherDisplay:10.37,2013-01-01 12:31:00,
2013-01-01 07:34:00,42.1,12.1,30.01,NW,306,12.7,12.7,29,0.00,CLR,,0.00,WeatherDisplay:10.37,2013-01-01 12:34:00,
2013-01-01 07:35:00,42.2,12.2,30.01,WNW,298,13.8,13.8,29,0.00,CLR,,0.00,WeatherDisplay:10.37,2013-01-01 12:35:00,
2013-01-01 07:37:00,41.9,11.1,30.01,NW,309,10.4,10.4,28,0.00,CLR,,0.00,WeatherDisplay:10.37,2013-01-01 12:37:00,
2013-01-01 07:39:00,42.1,11.3,30.01,NNW,336,11.5,11.5,28,0.00,CLR,,0.00,WeatherDisplay:10.37,2013-01-01 12:39:00,
2013-01-01 07:40:00,42.2,12.2,30.00,NW,312,13.8,13.8,29,0.00,CLR,,0.00,WeatherDisplay:10.37,2013-01-01 12:40:00,
2013-01-01 07:42:00,42.3,10.6,30.00,WNW,292,13.8,13.8,27,0.00,CLR,,0.00,WeatherDisplay:10.37,2013-01-01 12:42:00,
2013-01-01 07:45:00,42.5,10.0,30.00,WNW,302,13.8,13.8,26,0.00,CLR,,0.00,WeatherDisplay:10.37,2013-01-01 12:45:00,
2013-01-01 07:47:00,42.7,11.0,30.00,WNW,295,15.0,15.0,27,0.00,CLR,,0.00,WeatherDisplay:10.37,2013-01-01 12:47:00,
2013-01-01 07:51:00,42.8,10.2,30.00,WSW,254,15.0,15.0,26,0.00,CLR,,0.00,WeatherDisplay:10.37,2013-01-01 12:51:00,
2013-01-01 07:52:00,42.8,10.2,30.01,WNW,295,16.1,16.1,26,0.00,CLR,,0.00,WeatherDisplay:10.37,2013-01-01 12:52:00,
2013-01-01 07:53:00,42.8,10.2,30.01,NW,304,16.1,16.1,26,0.00,CLR,,0.00,WeatherDisplay:10.37,2013-01-01 12:53:00,
2013-01-01 07:54:00,42.8,9.3,30.01,NNW,336,15.0,15.0,25,0.00,CLR,,0.00,WeatherDisplay:10.37,2013-01-01 12:54:00,
2013-01-01 07:57:00,42.9,10.3,30.00,WNW,294,18.4,18.4,26,0.00,CLR,,0.00,WeatherDisplay:10.37,2013-01-01 12:57:00,
2013-01-01 07:58:00,43.0,10.4,30.00,WSW,248,13.8,13.8,26,0.00,CLR,,0.00,WeatherDisplay:10.37,2013-01-01 12:58:00,
2013-01-01 07:59:00,43.0,10.4,30.00,WNW,292,9.2,9.2,26,0.00,CLR,,0.00,WeatherDisplay:10.37,2013-01-01 12:59:00,
2013-01-01 08:03:00,42.9,9.4,30.00,WNW,291,14.3,14.3,25,0.00,CLR,,0.00,WeatherDisplay:10.37,2013-01-01 13:03:00,
2013-01-01 08:04:00,43.0,10.4,30.00,NNW,336,16.1,16.1,26,0.00,CLR,,0.00,WeatherDisplay:10.37,2013-01-01 13:04:00,
2013-01-01 08:05:00,43.0,9.5,29.99,WNW,292,17.3,17.3,25,0.00,CLR,,0.00,WeatherDisplay:10.37,2013-01-01 13:05:00,
2013-01-01 08:07:00,43.1,10.5,30.00,West,275,11.5,11.5,26,0.00,CLR,,0.00,WeatherDisplay:10.37,2013-01-01 13:07:00,
2013-01-01 08:08:00,42.9,11.2,30.00,West,264,15.0,15.0,27,0.00,CLR,,0.00,WeatherDisplay:10.37,2013-01-01 13:08:00,
2013-01-01 08:09:00,43.0,10.4,30.00,West,274,15.0,15.0,26,0.00,CLR,,0.00,WeatherDisplay:10.37,2013-01-01 13:09:00,
2013-01-01 08:10:00,43.0,10.4,30.00,WNW,292,13.9,13.9,26,0.00,CLR,,0.00,WeatherDisplay:10.37,2013-01-01 13:10:00,
2013-01-01 08:13:00,43.0,10.4,30.01,NW,318,13.8,13.8,26,0.00,CLR,,0.00,WeatherDisplay:10.37,2013-01-01 13:13:00,
2013-01-01 08:14:00,43.2,11.4,30.01,WNW,291,11.5,11.5,27,0.00,CLR,,0.00,WeatherDisplay:10.37,2013-01-01 13:14:00,
2013-01-01 08:16:00,43.1,11.3,30.01,WNW,296,15.0,15.0,27,0.00,CLR,,0.00,WeatherDisplay:10.37,2013-01-01 13:16:00,
2013-01-01 08:19:00,43.3,12.3,30.01,NW,320,10.4,10.4,28,0.00,CLR,,0.00,WeatherDisplay:10.37,2013-01-01 13:19:00,
2013-01-01 08:21:00,43.3,12.3,30.01,NW,326,12.7,12.7,28,0.00,CLR,,0.00,WeatherDisplay:10.37,2013-01-01 13:21:00,
2013-01-01 08:23:00,43.4,12.4,30.02,NW,322,15.0,15.0,28,0.00,CLR,,0.00,WeatherDisplay:10.37,2013-01-01 13:23:00,
2013-01-01 08:24:00,43.3,12.3,30.02,NW,326,13.8,13.8,28,0.00,CLR,,0.00,WeatherDisplay:10.37,2013-01-01 13:24:00,
2013-01-01 08:25:00,43.3,12.3,30.02,WNW,298,10.0,15.0,28,0.00,CLR,,0.00,WeatherDisplay:10.37,2013-01-01 13:25:00,
2013-01-01 08:28:00,43.3,12.3,30.01,NW,322,12.7,12.7,28,0.00,CLR,,0.00,WeatherDisplay:10.37,2013-01-01 13:28:00,
2013-01-01 08:29:00,43.4,13.2,30.01,NW,304,12.7,12.7,29,0.00,CLR,,0.00,WeatherDisplay:10.37,2013-01-01 13:29:00,
2013-01-01 08:30:00,43.3,13.1,30.01,WNW,299,8.0,14.0,29,0.00,CLR,,0.00,WeatherDisplay:10.37,2013-01-01 13:30:00,
2013-01-01 08:33:00,43.5,14.1,30.02,NW,315,13.4,13.4,30,0.00,CLR,,0.00,WeatherDisplay:10.37,2013-01-01 13:33:00,
2013-01-01 08:35:00,43.5,14.1,30.02,WNW,292,13.8,13.8,30,0.00,CLR,,0.00,WeatherDisplay:10.37,2013-01-01 13:35:00,
2013-01-01 08:36:00,43.7,14.2,30.02,WNW,298,12.7,12.7,30,0.00,CLR,,0.00,WeatherDisplay:10.37,2013-01-01 13:36:00,
2013-01-01 08:40:00,43.7,15.0,30.02,NW,306,15.0,15.0,31,0.00,CLR,,0.00,WeatherDisplay:10.37,2013-01-01 13:40:00,
2013-01-01 08:43:00,43.7,15.7,30.01,WNW,282,16.1,16.1,32,0.00,CLR,,0.00,WeatherDisplay:10.37,2013-01-01 13:43:00,
2013-01-01 08:46:00,43.8,15.8,30.01,WNW,296,13.8,13.8,32,0.00,CLR,,0.00,WeatherDisplay:10.37,2013-01-01 13:46:00,
2013-01-01 08:48:00,43.8,16.5,30.00,NW,325,12.7,12.7,33,0.00,CLR,,0.00,WeatherDisplay:10.37,2013-01-01 13:48:00,
2013-01-01 08:51:00,44.2,16.9,29.97,SW,233,9.2,0.0,33,0.00,CLR,,0.00,WeatherDisplay:10.37,2013-01-01 13:51:00,
2013-01-01 08:52:00,44.1,16.8,29.97,WSW,241,4.4,4.4,33,0.00,CLR,,0.00,WeatherDisplay:10.37,2013-01-01 13:52:00,
2013-01-01 08:55:00,44.0,17.4,29.97,NW,309,8.1,8.1,34,0.00,CLR,,0.00,WeatherDisplay:10.37,2013-01-01 13:55:00,
2013-01-01 08:56:00,43.9,18.0,29.99,NW,319,16.2,16.2,35,0.00,CLR,,0.00,WeatherDisplay:10.37,2013-01-01 13:56:00,
2013-01-01 08:57:00,44.0,18.1,30.01,NW,320,16.1,16.1,35,0.00,CLR,,0.00,WeatherDisplay:10.37,2013-01-01 13:57:00,
2013-01-01 08:58:00,43.9,18.0,30.01,NNW,332,20.7,20.7,35,0.00,CLR,,0.00,WeatherDisplay:10.37,2013-01-01 13:58:00,
2013-01-01 09:02:00,44.0,18.1,30.01,West,274,17.3,17.3,35,0.00,CLR,,0.00,WeatherDisplay:10.37,2013-01-01 14:02:00,
2013-01-01 09:04:00,44.0,18.7,29.99,NW,316,15.0,15.0,36,0.00,CLR,,0.00,WeatherDisplay:10.37,2013-01-01 14:04:00,
2013-01-01 09:07:00,44.1,19.5,29.97,NW,320,11.5,11.5,37,0.00,CLR,,0.00,WeatherDisplay:10.37,2013-01-01 14:07:00,
2013-01-01 09:09:00,44.3,20.3,29.97,WNW,282,6.9,6.9,38,0.00,CLR,,0.00,WeatherDisplay:10.37,2013-01-01 14:09:00,
2013-01-01 09:10:00,44.4,20.3,29.97,NW,306,6.0,14.0,38,0.00,CLR,,0.00,WeatherDisplay:10.37,2013-01-01 14:10:00,
2013-01-01 09:12:00,44.6,20.5,30.00,WSW,258,10.4,10.4,38,0.00,CLR,,0.00,WeatherDisplay:10.37,2013-01-01 14:12:00,
2013-01-01 09:15:00,44.8,20.7,30.00,SW,229,11.5,11.5,38,0.00,CLR,,0.00,WeatherDisplay:10.37,2013-01-01 14:15:00,
2013-01-01 09:16:00,44.8,20.7,30.00,SSW,206,10.1,10.1,38,0.00,CLR,,0.00,WeatherDisplay:10.37,2013-01-01 14:16:00,
2013-01-01 09:17:00,44.8,20.7,30.00,West,267,10.4,10.4,38,0.00,CLR,,0.00,WeatherDisplay:10.37,2013-01-01 14:17:00,
2013-01-01 09:18:00,44.8,20.7,30.00,West,277,10.4,10.4,38,0.00,CLR,,0.00,WeatherDisplay:10.37,2013-01-01 14:18:00,
2013-01-01 09:22:00,44.8,20.7,30.01,West,263,8.1,8.1,38,0.00,CLR,,0.00,WeatherDisplay:10.37,2013-01-01 14:22:00,
2013-01-01 09:24:00,44.8,20.7,30.02,SW,230,9.2,9.2,38,0.00,CLR,,0.00,WeatherDisplay:10.37,2013-01-01 14:24:00,
2013-01-01 09:25:00,44.7,20.6,30.01,SW,230,5.8,5.8,38,0.00,CLR,,0.00,WeatherDisplay:10.37,2013-01-01 14:25:00,
2013-01-01 09:27:00,44.8,20.7,30.00,SW,224,0.0,2.5,38,0.00,CLR,,0.00,WeatherDisplay:10.37,2013-01-01 14:27:00,
2013-01-01 09:29:00,44.8,20.7,30.00,SW,224,0.0,0.0,38,0.00,CLR,,0.00,WeatherDisplay:10.37,2013-01-01 14:29:00,
2013-01-01 09:30:00,44.8,21.3,30.00,West,265,8.1,8.1,39,0.00,CLR,,0.00,WeatherDisplay:10.37,2013-01-01 14:30:00,
2013-01-01 09:32:00,45.0,22.1,30.00,NW,304,11.9,11.9,40,0.00,CLR,,0.00,WeatherDisplay:10.37,2013-01-01 14:32:00,
2013-01-01 09:34:00,45.1,22.8,30.01,NW,309,16.1,16.1,41,0.00,CLR,,0.00,WeatherDisplay:10.37,2013-01-01 14:34:00,
2013-01-01 09:36:00,45.4,23.6,30.02,WNW,295,12.7,12.7,42,0.00,CLR,,0.00,WeatherDisplay:10.37,2013-01-01 14:36:00,
2013-01-01 09:39:00,45.9,24.6,30.01,NW,323,17.3,17.3,43,0.00,CLR,,0.00,WeatherDisplay:10.37,2013-01-01 14:39:00,
2013-01-01 09:40:00,45.9,24.6,30.01,North,350,15.0,15.0,43,0.00,CLR,,0.00,WeatherDisplay:10.37,2013-01-01 14:40:00,
2013-01-01 09:41:00,46.0,24.7,30.01,North,359,15.0,15.0,43,0.00,CLR,,0.00,WeatherDisplay:10.37,2013-01-01 14:41:00,
2013-01-01 09:42:00,46.0,25.3,30.01,NW,320,10.4,10.4,44,0.00,CLR,,0.00,WeatherDisplay:10.37,2013-01-01 14:42:00,
2013-01-01 09:44:00,46.2,25.5,30.02,West,265,16.1,16.1,44,0.00,CLR,,0.00,WeatherDisplay:10.37,2013-01-01 14:44:00,
2013-01-01 09:46:00,46.2,25.5,30.00,NW,305,7.6,7.6,44,0.00,CLR,,0.00,WeatherDisplay:10.37,2013-01-01 14:46:00,
2013-01-01 09:47:00,46.3,25.6,30.01,NW,304,7.2,7.2,44,0.00,CLR,,0.00,WeatherDisplay:10.37,2013-01-01 14:47:00,
2013-01-01 09:51:00,46.3,25.6,30.01,WNW,289,13.8,13.8,44,0.00,CLR,,0.00,WeatherDisplay:10.37,2013-01-01 14:51:00,
2013-01-01 09:53:00,46.4,25.6,30.00,NW,312,12.7,12.7,44,0.00,CLR,,0.00,WeatherDisplay:10.37,2013-01-01 14:53:00,
2013-01-01 09:58:00,46.4,25.6,29.99,SW,233,11.5,11.5,44,0.00,CLR,,0.00,WeatherDisplay:10.37,2013-01-01 14:58:00,
2013-01-01 09:59:00,46.5,25.7,29.99,West,265,11.5,11.5,44,0.00,CLR,,0.00,WeatherDisplay:10.37,2013-01-01 14:59:00,
2013-01-01 10:00:00,46.5,25.7,29.99,West,281,7.0,14.0,44,0.00,CLR,,0.00,WeatherDisplay:10.37,2013-01-01 15:00:00,
2013-01-01 10:04:00,46.7,26.5,29.98,NNW,346,8.1,8.1,45,0.00,CLR,,0.00,WeatherDisplay:10.37,2013-01-01 15:04:00,
2013-01-01 10:05:00,46.7,25.9,29.97,WNW,287,2.0,12.0,44,0.00,CLR,,0.00,WeatherDisplay:10.37,2013-01-01 15:05:00,
2013-01-01 10:10:00,46.8,26.6,29.99,NW,315,10.3,10.3,45,0.00,CLR,,0.00,WeatherDisplay:10.37,2013-01-01 15:10:00,
2013-01-01 10:16:00,46.9,26.6,30.02,WNW,296,13.8,13.8,45,0.00,CLR,,0.00,WeatherDisplay:10.37,2013-01-01 15:16:00,
2013-01-01 10:21:00,46.8,26.6,30.01,NW,305,17.3,17.3,45,0.00,CLR,,0.00,WeatherDisplay:10.37,2013-01-01 15:21:00,
2013-01-01 10:22:00,47.0,26.7,30.01,WNW,291,13.8,13.8,45,0.00,CLR,,0.00,WeatherDisplay:10.37,2013-01-01 15:22:00,
2013-01-01 10:23:00,47.0,27.3,30.00,West,267,10.4,10.4,46,0.00,CLR,,0.00,WeatherDisplay:10.37,2013-01-01 15:23:00,
2013-01-01 10:24:00,47.0,27.3,30.00,WNW,292,17.3,17.3,46,0.00,CLR,,0.00,WeatherDisplay:10.37,2013-01-01 15:24:00,
2013-01-01 10:27:00,47.4,27.1,30.00,West,271,12.7,12.7,45,0.00,CLR,,0.00,WeatherDisplay:10.37,2013-01-01 15:27:00,
2013-01-01 10:28:00,47.3,27.5,30.00,WNW,288,9.2,9.2,46,0.00,CLR,,0.00,WeatherDisplay:10.37,2013-01-01 15:28:00,
2013-01-01 10:29:00,47.5,27.2,30.00,NW,309,11.5,11.5,45,0.00,CLR,,0.00,WeatherDisplay:10.37,2013-01-01 15:29:00,
2013-01-01 10:31:00,47.6,27.3,29.99,SW,219,13.8,13.8,45,0.00,CLR,,0.00,WeatherDisplay:10.37,2013-01-01 15:31:00,
2013-01-01 10:33:00,47.7,27.4,29.98,WSW,248,11.5,11.5,45,0.00,CLR,,0.00,WeatherDisplay:10.37,2013-01-01 15:33:00,
2013-01-01 10:35:00,47.7,27.4,29.98,West,278,12.7,12.7,45,0.00,CLR,,0.00,WeatherDisplay:10.37,2013-01-01 15:35:00,
2013-01-01 10:36:00,47.8,27.5,29.98,WNW,287,13.1,13.1,45,0.00,CLR,,0.00,WeatherDisplay:10.37,2013-01-01 15:36:00,
2013-01-01 10:40:00,47.9,27.6,29.98,West,264,13.8,13.8,45,0.00,CLR,,0.00,WeatherDisplay:10.37,2013-01-01 15:40:00,
2013-01-01 10:41:00,47.9,27.0,29.98,NW,316,13.8,13.8,44,0.00,CLR,,0.00,WeatherDisplay:10.37,2013-01-01 15:41:00,
2013-01-01 10:44:00,48.0,27.1,29.99,WNW,292,8.1,8.1,44,0.00,CLR,,0.00,WeatherDisplay:10.37,2013-01-01 15:44:00,
2013-01-01 10:45:00,47.9,27.6,29.98,NW,315,10.4,10.4,45,0.00,CLR,,0.00,WeatherDisplay:10.37,2013-01-01 15:45:00,
2013-01-01 10:46:00,47.8,27.5,29.99,NW,322,11.7,11.7,45,0.00,CLR,,0.00,WeatherDisplay:10.37,2013-01-01 15:46:00,
2013-01-01 10:47:00,47.8,26.9,29.99,NNW,332,16.1,16.1,44,0.00,CLR,,0.00,WeatherDisplay:10.37,2013-01-01 15:47:00,
2013-01-01 10:50:00,47.7,27.4,29.99,NNW,333,11.5,11.5,45,0.00,CLR,,0.00,WeatherDisplay:10.37,2013-01-01 15:50:00,
2013-01-01 10:51:00,47.7,26.8,30.00,NW,309,11.2,11.2,44,0.00,CLR,,0.00,WeatherDisplay:10.37,2013-01-01 15:51:00,
2013-01-01 10:53:00,47.5,26.6,30.00,WNW,288,16.1,16.1,44,0.00,CLR,,0.00,WeatherDisplay:10.37,2013-01-01 15:53:00,
2013-01-01 10:55:00,47.6,27.3,30.00,WNW,301,10.4,10.4,45,0.00,CLR,,0.00,WeatherDisplay:10.37,2013-01-01 15:55:00,
2013-01-01 10:56:00,47.5,26.6,30.00,West,272,10.4,10.4,44,0.00,CLR,,0.00,WeatherDisplay:10.37,2013-01-01 15:56:00,
2013-01-01 10:57:00,47.6,26.7,30.00,NW,311,10.4,10.4,44,0.00,CLR,,0.00,WeatherDisplay:10.37,2013-01-01 15:57:00,
2013-01-01 10:58:00,47.4,26.6,30.00,West,263,11.5,11.5,44,0.00,CLR,,0.00,WeatherDisplay:10.37,2013-01-01 15:58:00,
2013-01-01 11:00:00,47.5,26.6,30.00,WSW,253,11.5,11.5,44,0.00,CLR,,0.00,WeatherDisplay:10.37,2013-01-01 16:00:00,
2013-01-01 11:02:00,47.4,26.6,30.00,West,277,12.5,12.5,44,0.00,CLR,,0.00,WeatherDisplay:10.37,2013-01-01 16:02:00,
2013-01-01 11:06:00,47.4,27.1,30.00,West,270,13.8,13.8,45,0.00,CLR,,0.00,WeatherDisplay:10.37,2013-01-01 16:06:00,
2013-01-01 11:08:00,47.4,27.1,30.00,West,278,13.8,13.8,45,0.00,CLR,,0.00,WeatherDisplay:10.37,2013-01-01 16:08:00,
2013-01-01 11:09:00,47.6,27.3,30.00,NW,316,15.0,15.0,45,0.00,CLR,,0.00,WeatherDisplay:10.37,2013-01-01 16:09:00,
2013-01-01 11:11:00,47.6,27.3,30.00,WNW,296,12.7,12.7,45,0.00,CLR,,0.00,WeatherDisplay:10.37,2013-01-01 16:11:00,
2013-01-01 11:12:00,47.7,27.4,30.00,WNW,292,12.7,12.7,45,0.00,CLR,,0.00,WeatherDisplay:10.37,2013-01-01 16:12:00,
2013-01-01 11:15:00,47.8,27.5,30.00,WNW,288,8.0,16.0,45,0.00,CLR,,0.00,WeatherDisplay:10.37,2013-01-01 16:15:00,
2013-01-01 11:16:00,47.9,27.6,29.99,West,277,11.5,11.5,45,0.00,CLR,,0.00,WeatherDisplay:10.37,2013-01-01 16:16:00,
2013-01-01 11:18:00,48.1,27.7,29.99,WSW,243,15.0,15.0,45,0.00,CLR,,0.00,WeatherDisplay:10.37,2013-01-01 16:18:00,
2013-01-01 11:21:00,48.1,27.7,30.00,West,260,16.1,16.1,45,0.00,CLR,,0.00,WeatherDisplay:10.37,2013-01-01 16:21:00,
2013-01-01 11:22:00,48.0,27.6,30.00,West,272,13.8,13.8,45,0.00,CLR,,0.00,WeatherDisplay:10.37,2013-01-01 16:22:00,
2013-01-01 11:23:00,47.9,27.6,29.99,NW,319,12.7,12.7,45,0.00,CLR,,0.00,WeatherDisplay:10.37,2013-01-01 16:23:00,
2013-01-01 11:25:00,48.0,27.7,29.99,West,272,7.0,17.0,45,0.00,CLR,,0.00,WeatherDisplay:10.37,2013-01-01 16:25:00,
2013-01-01 11:27:00,47.9,27.6,29.99,WSW,248,12.7,12.7,45,0.00,CLR,,0.00,WeatherDisplay:10.37,2013-01-01 16:27:00,
2013-01-01 11:31:00,48.1,27.7,29.98,WNW,294,10.4,10.4,45,0.00,CLR,,0.00,WeatherDisplay:10.37,2013-01-01 16:31:00,
2013-01-01 11:33:00,48.1,27.7,29.96,WNW,289,10.0,10.0,45,0.00,CLR,,0.00,WeatherDisplay:10.37,2013-01-01 16:33:00,
2013-01-01 11:34:00,48.0,27.1,29.96,WSW,250,11.5,11.5,44,0.00,CLR,,0.00,WeatherDisplay:10.37,2013-01-01 16:34:00,
2013-01-01 11:37:00,48.1,27.2,29.96,West,271,11.5,11.5,44,0.00,CLR,,0.00,WeatherDisplay:10.37,2013-01-01 16:37:00,
2013-01-01 11:38:00,48.3,27.4,29.97,West,280,12.7,12.7,44,0.00,CLR,,0.00,WeatherDisplay:10.37,2013-01-01 16:38:00,
2013-01-01 11:39:00,48.3,27.4,29.97,West,261,9.8,9.8,44,0.00,CLR,,0.00,WeatherDisplay:10.37,2013-01-01 16:39:00,
2013-01-01 11:41:00,48.4,28.0,29.96,West,280,6.9,6.9,45,0.00,CLR,,0.00,WeatherDisplay:10.37,2013-01-01 16:41:00,
2013-01-01 11:44:00,48.4,28.0,29.96,WNW,301,4.6,4.6,45,0.00,CLR,,0.00,WeatherDisplay:10.37,2013-01-01 16:44:00,
2013-01-01 11:48:00,48.4,27.5,29.95,West,278,9.2,9.2,44,0.00,CLR,,0.00,WeatherDisplay:10.37,2013-01-01 16:48:00,
2013-01-01 11:49:00,48.4,28.0,29.96,NW,304,6.9,7.0,45,0.00,CLR,,0.00,WeatherDisplay:10.37,2013-01-01 16:49:00,
2013-01-01 11:51:00,48.4,28.0,29.96,WNW,288,8.1,8.1,45,0.00,CLR,,0.00,WeatherDisplay:10.37,2013-01-01 16:51:00,
2013-01-01 11:52:00,48.4,28.0,29.97,West,265,8.1,8.1,45,0.00,CLR,,0.00,WeatherDisplay:10.37,2013-01-01 16:52:00,
2013-01-01 11:53:00,48.4,27.5,29.96,WSW,253,6.9,6.9,44,0.00,CLR,,0.00,WeatherDisplay:10.37,2013-01-01 16:53:00,
2013-01-01 11:55:00,48.4,27.5,29.96,West,278,2.0,8.0,44,0.00,CLR,,0.00,WeatherDisplay:10.37,2013-01-01 16:55:00,
2013-01-01 11:56:00,48.4,27.5,29.96,WNW,299,9.2,9.2,44,0.00,CLR,,0.00,WeatherDisplay:10.37,2013-01-01 16:56:00,
2013-01-01 11:58:00,48.4,28.0,29.98,WNW,289,6.9,6.9,45,0.00,CLR,,0.00,WeatherDisplay:10.37,2013-01-01 16:58:00,
2013-01-01 12:00:00,48.4,27.5,29.94,South,188,8.1,8.1,44,0.00,CLR,,0.00,WeatherDisplay:10.37,2013-01-01 17:00:00,
2013-01-01 12:02:00,48.4,27.5,29.93,SW,230,6.9,6.9,44,0.00,CLR,,0.00,WeatherDisplay:10.37,2013-01-01 17:02:00,
2013-01-01 12:03:00,48.4,27.5,29.93,West,271,8.1,8.1,44,0.00,CLR,,0.00,WeatherDisplay:10.37,2013-01-01 17:03:00,
2013-01-01 12:04:00,48.4,28.0,29.93,West,275,9.2,9.2,45,0.00,CLR,,0.00,WeatherDisplay:10.37,2013-01-01 17:04:00,
2013-01-01 12:06:00,48.5,27.6,29.95,WNW,294,8.1,8.1,44,0.00,CLR,,0.00,WeatherDisplay:10.37,2013-01-01 17:06:00,
2013-01-01 12:07:00,48.6,28.2,29.95,WNW,298,7.3,7.3,45,0.00,CLR,,0.00,WeatherDisplay:10.37,2013-01-01 17:07:00,
2013-01-01 12:09:00,48.7,27.7,29.96,NW,319,11.0,11.0,44,0.00,CLR,,0.00,WeatherDisplay:10.37,2013-01-01 17:09:00,
2013-01-01 12:10:00,48.5,28.1,29.96,WNW,302,12.7,12.7,45,0.00,CLR,,0.00,WeatherDisplay:10.37,2013-01-01 17:10:00,
2013-01-01 12:11:00,48.5,27.6,29.96,West,267,9.2,9.2,44,0.00,CLR,,0.00,WeatherDisplay:10.37,2013-01-01 17:11:00,
2013-01-01 12:13:00,48.5,28.1,29.95,West,281,11.5,11.5,45,0.00,CLR,,0.00,WeatherDisplay:10.37,2013-01-01 17:13:00,
2013-01-01 12:15:00,48.4,28.0,29.96,WNW,291,9.6,9.6,45,0.00,CLR,,0.00,WeatherDisplay:10.37,2013-01-01 17:15:00,
2013-01-01 12:16:00,48.4,28.0,29.95,NW,305,11.5,11.5,45,0.00,CLR,,0.00,WeatherDisplay:10.37,2013-01-01 17:16:00,
2013-01-01 12:19:00,48.5,28.1,29.95,West,278,9.2,9.2,45,0.00,CLR,,0.00,WeatherDisplay:10.37,2013-01-01 17:19:00,
2013-01-01 12:21:00,48.5,28.1,29.94,WSW,253,10.4,10.4,45,0.00,CLR,,0.00,WeatherDisplay:10.37,2013-01-01 17:21:00,
2013-01-01 12:22:00,48.4,28.0,29.93,WNW,289,11.4,11.4,45,0.00,CLR,,0.00,WeatherDisplay:10.37,2013-01-01 17:22:00,
2013-01-01 12:23:00,48.4,28.0,29.94,WNW,291,11.5,11.5,45,0.00,CLR,,0.00,WeatherDisplay:10.37,2013-01-01 17:23:00,
2013-01-01 12:25:00,48.4,28.0,29.95,WNW,289,11.5,11.5,45,0.00,CLR,,0.00,WeatherDisplay:10.37,2013-01-01 17:25:00,
2013-01-01 12:28:00,48.4,28.5,29.95,West,271,12.7,12.7,46,0.00,CLR,,0.00,WeatherDisplay:10.37,2013-01-01 17:28:00,
2013-01-01 12:30:00,48.5,28.6,29.95,West,277,8.6,8.6,46,0.00,CLR,,0.00,WeatherDisplay:10.37,2013-01-01 17:30:00,
2013-01-01 12:33:00,48.4,28.5,29.95,WNW,285,9.2,9.2,46,0.00,CLR,,0.00,WeatherDisplay:10.37,2013-01-01 17:33:00,
2013-01-01 12:36:00,48.5,28.6,29.95,WNW,294,15.0,15.0,46,0.00,CLR,,0.00,WeatherDisplay:10.37,2013-01-01 17:36:00,
2013-01-01 12:37:00,48.5,28.6,29.95,WNW,287,12.7,12.7,46,0.00,CLR,,0.00,WeatherDisplay:10.37,2013-01-01 17:37:00,
2013-01-01 12:39:00,48.5,28.6,29.95,SSW,212,11.5,11.5,46,0.00,CLR,,0.00,WeatherDisplay:10.37,2013-01-01 17:39:00,
2013-01-01 12:41:00,48.4,28.5,29.94,West,274,9.2,9.2,46,0.00,CLR,,0.00,WeatherDisplay:10.37,2013-01-01 17:41:00,
2013-01-01 12:44:00,48.6,28.7,29.94,West,264,10.4,10.4,46,0.00,CLR,,0.00,WeatherDisplay:10.37,2013-01-01 17:44:00,
2013-01-01 12:45:00,48.7,28.8,29.94,West,270,6.0,12.0,46,0.00,CLR,,0.00,WeatherDisplay:10.37,2013-01-01 17:45:00,
2013-01-01 12:47:00,49.0,29.1,29.93,WSW,246,11.5,11.5,46,0.00,CLR,,0.00,WeatherDisplay:10.37,2013-01-01 17:47:00,
2013-01-01 12:50:00,49.0,29.1,29.94,West,271,3.0,12.0,46,0.00,CLR,,0.00,WeatherDisplay:10.37,2013-01-01 17:50:00,
2013-01-01 12:52:00,48.8,28.9,29.94,SW,226,9.2,9.2,46,0.00,CLR,,0.00,WeatherDisplay:10.37,2013-01-01 17:52:00,
2013-01-01 12:56:00,48.8,28.9,29.95,West,271,11.5,11.5,46,0.00,CLR,,0.00,WeatherDisplay:10.37,2013-01-01 17:56:00,
2013-01-01 12:57:00,48.8,28.9,29.95,WSW,240,12.7,12.7,46,0.00,CLR,,0.00,WeatherDisplay:10.37,2013-01-01 17:57:00,
2013-01-01 12:58:00,48.8,28.9,29.94,West,268,10.4,10.4,46,0.00,CLR,,0.00,WeatherDisplay:10.37,2013-01-01 17:58:00,
2013-01-01 13:00:00,49.1,29.2,29.93,West,265,2.0,13.0,46,0.00,CLR,,0.00,WeatherDisplay:10.37,2013-01-01 18:00:00,
2013-01-01 13:02:00,48.9,29.0,29.92,WSW,243,11.5,11.5,46,0.00,CLR,,0.00,WeatherDisplay:10.37,2013-01-01 18:02:00,
2013-01-01 13:03:00,49.0,29.1,29.91,WSW,243,11.5,11.5,46,0.00,CLR,,0.00,WeatherDisplay:10.37,2013-01-01 18:03:00,
2013-01-01 13:05:00,49.2,29.2,29.90,WSW,246,5.0,13.0,46,0.00,CLR,,0.00,WeatherDisplay:10.37,2013-01-01 18:05:00,
2013-01-01 13:06:00,49.2,29.8,29.91,West,277,9.2,9.2,47,0.00,CLR,,0.00,WeatherDisplay:10.37,2013-01-01 18:06:00,
2013-01-01 13:08:00,49.2,29.8,29.93,West,271,11.5,11.5,47,0.00,CLR,,0.00,WeatherDisplay:10.37,2013-01-01 18:08:00,
2013-01-01 13:10:00,49.2,29.8,29.93,SW,236,5.8,5.8,47,0.00,CLR,,0.00,WeatherDisplay:10.37,2013-01-01 18:10:00,
2013-01-01 13:11:00,49.2,29.3,29.93,WNW,302,2.3,2.7,46,0.00,CLR,,0.00,WeatherDisplay:10.37,2013-01-01 18:11:00,
2013-01-01 13:14:00,49.4,29.5,29.93,WSW,241,6.1,6.1,46,0.00,CLR,,0.00,WeatherDisplay:10.37,2013-01-01 18:14:00,
2013-01-01 13:15:00,49.4,29.4,29.93,West,266,3.0,9.0,46,0.00,CLR,,0.00,WeatherDisplay:10.37,2013-01-01 18:15:00,
2013-01-01 13:16:00,49.3,29.9,29.91,WSW,251,11.5,11.5,47,0.00,CLR,,0.00,WeatherDisplay:10.37,2013-01-01 18:16:00,
2013-01-01 13:17:00,49.2,29.8,29.92,WNW,285,6.9,6.9,47,0.00,CLR,,0.00,WeatherDisplay:10.37,2013-01-01 18:17:00,
2013-01-01 13:20:00,49.4,30.0,29.93,West,279,5.0,12.0,47,0.00,CLR,,0.00,WeatherDisplay:10.37,2013-01-01 18:20:00,
2013-01-01 13:21:00,49.2,29.8,29.93,West,270,11.1,11.1,47,0.00,CLR,,0.00,WeatherDisplay:10.37,2013-01-01 18:21:00,
2013-01-01 13:23:00,49.3,29.9,29.93,WNW,294,8.1,8.1,47,0.00,CLR,,0.00,WeatherDisplay:10.37,2013-01-01 18:23:00,
2013-01-01 13:25:00,49.4,30.0,29.93,West,263,8.1,8.1,47,0.00,CLR,,0.00,WeatherDisplay:10.37,2013-01-01 18:25:00,
2013-01-01 13:26:00,49.6,30.7,29.93,WNW,289,9.2,9.2,48,0.00,CLR,,0.00,WeatherDisplay:10.37,2013-01-01 18:26:00,
2013-01-01 13:29:00,49.6,30.2,29.93,WNW,296,8.1,8.1,47,0.00,CLR,,0.00,WeatherDisplay:10.37,2013-01-01 18:29:00,
2013-01-01 13:31:00,49.5,30.1,29.93,West,265,8.1,8.1,47,0.00,CLR,,0.00,WeatherDisplay:10.37,2013-01-01 18:31:00,
2013-01-01 13:35:00,49.6,30.1,29.92,West,280,3.0,10.0,47,0.00,CLR,,0.00,WeatherDisplay:10.37,2013-01-01 18:35:00,
2013-01-01 13:36:00,49.5,30.1,29.92,WNW,294,10.4,10.4,47,0.00,CLR,,0.00,WeatherDisplay:10.37,2013-01-01 18:36:00,
2013-01-01 13:38:00,49.5,30.1,29.91,NW,304,7.6,7.6,47,0.00,CLR,,0.00,WeatherDisplay:10.37,2013-01-01 18:38:00,
2013-01-01 13:41:00,49.6,30.2,29.92,West,261,9.3,9.3,47,0.00,CLR,,0.00,WeatherDisplay:10.37,2013-01-01 18:41:00,
2013-01-01 13:42:00,49.6,30.2,29.92,SSW,210,9.2,9.2,47,0.00,CLR,,0.00,WeatherDisplay:10.37,2013-01-01 18:42:00,
2013-01-01 13:45:00,49.5,30.1,29.92,West,281,9.2,9.2,47,0.00,CLR,,0.00,WeatherDisplay:10.37,2013-01-01 18:45:00,
2013-01-01 13:47:00,49.5,29.6,29.92,NW,315,11.5,11.5,46,0.00,CLR,,0.00,WeatherDisplay:10.37,2013-01-01 18:47:00,
2013-01-01 13:49:00,49.5,30.1,29.93,WSW,251,9.2,9.2,47,0.00,CLR,,0.00,WeatherDisplay:10.37,2013-01-01 18:49:00,
2013-01-01 13:50:00,49.5,30.1,29.93,WSW,258,9.2,9.2,47,0.00,CLR,,0.00,WeatherDisplay:10.37,2013-01-01 18:50:00,
2013-01-01 13:52:00,49.5,30.1,29.92,West,261,6.9,6.9,47,0.00,CLR,,0.00,WeatherDisplay:10.37,2013-01-01 18:52:00,
2013-01-01 13:54:00,49.7,30.3,29.92,WNW,302,8.1,8.1,47,0.00,CLR,,0.00,WeatherDisplay:10.37,2013-01-01 18:54:00,
2013-01-01 13:55:00,49.5,30.1,29.92,WNW,302,0.0,0.0,47,0.00,CLR,,0.00,WeatherDisplay:10.37,2013-01-01 18:55:00,
2013-01-01 13:57:00,49.6,30.2,29.91,NW,306,7.1,7.1,47,0.00,CLR,,0.00,WeatherDisplay:10.37,2013-01-01 18:57:00,
2013-01-01 13:58:00,49.5,30.1,29.91,West,274,7.0,7.0,47,0.00,CLR,,0.00,WeatherDisplay:10.37,2013-01-01 18:58:00,
2013-01-01 13:59:00,49.7,30.3,29.92,WNW,301,9.9,9.9,47,0.00,CLR,,0.00,WeatherDisplay:10.37,2013-01-01 18:59:00,
2013-01-01 14:00:00,49.6,30.2,29.92,WSW,241,10.4,10.4,47,0.00,CLR,,0.00,WeatherDisplay:10.37,2013-01-01 19:00:00,
2013-01-01 14:03:00,49.5,30.1,29.91,West,265,6.9,6.9,47,0.00,CLR,,0.00,WeatherDisplay:10.37,2013-01-01 19:03:00,
2013-01-01 14:05:00,49.5,30.1,29.91,West,265,2.0,10.0,47,0.00,CLR,,0.00,WeatherDisplay:10.37,2013-01-01 19:05:00,
2013-01-01 14:09:00,49.6,29.6,29.91,West,277,8.1,8.1,46,0.00,CLR,,0.00,WeatherDisplay:10.37,2013-01-01 19:09:00,
2013-01-01 14:11:00,49.8,29.8,29.91,WNW,291,8.1,8.1,46,0.00,CLR,,0.00,WeatherDisplay:10.37,2013-01-01 19:11:00,
2013-01-01 14:12:00,49.8,29.8,29.91,WNW,285,8.1,8.1,46,0.00,CLR,,0.00,WeatherDisplay:10.37,2013-01-01 19:12:00,
2013-01-01 14:13:00,49.6,29.6,29.91,WNW,298,7.1,7.1,46,0.00,CLR,,0.00,WeatherDisplay:10.37,2013-01-01 19:13:00,
2013-01-01 14:17:00,49.7,29.7,29.91,WNW,288,6.9,6.9,46,0.00,CLR,,0.00,WeatherDisplay:10.37,2013-01-01 19:17:00,
2013-01-01 14:21:00,49.7,29.7,29.91,WSW,258,9.2,9.2,46,0.00,CLR,,0.00,WeatherDisplay:10.37,2013-01-01 19:21:00,
2013-01-01 14:23:00,49.7,29.7,29.91,WSW,258,8.1,8.1,46,0.00,CLR,,0.00,WeatherDisplay:10.37,2013-01-01 19:23:00,
2013-01-01 14:24:00,49.8,29.8,29.91,West,260,6.9,6.9,46,0.00,CLR,,0.00,WeatherDisplay:10.37,2013-01-01 19:24:00,
2013-01-01 14:27:00,50.0,30.0,29.90,WSW,241,4.6,4.6,46,0.00,CLR,,0.00,WeatherDisplay:10.37,2013-01-01 19:27:00,
2013-01-01 14:28:00,49.6,30.2,29.90,WSW,254,8.1,8.1,47,0.00,CLR,,0.00,WeatherDisplay:10.37,2013-01-01 19:28:00,
2013-01-01 14:29:00,49.4,30.0,29.90,SW,227,9.2,9.2,47,0.00,CLR,,0.00,WeatherDisplay:10.37,2013-01-01 19:29:00,
2013-01-01 14:32:00,49.5,30.1,29.91,WSW,244,8.1,8.1,47,0.00,CLR,,0.00,WeatherDisplay:10.37,2013-01-01 19:32:00,
2013-01-01 14:34:00,49.6,30.2,29.91,West,268,5.8,5.8,47,0.00,CLR,,0.00,WeatherDisplay:10.37,2013-01-01 19:34:00,
2013-01-01 14:35:00,49.7,30.3,29.91,WSW,251,2.0,8.0,47,0.00,CLR,,0.00,WeatherDisplay:10.37,2013-01-01 19:35:00,
2013-01-01 14:38:00,49.7,30.3,29.91,WNW,285,6.3,6.3,47,0.00,CLR,,0.00,WeatherDisplay:10.37,2013-01-01 19:38:00,
2013-01-01 14:39:00,49.6,30.2,29.91,WSW,251,6.9,6.9,47,0.00,CLR,,0.00,WeatherDisplay:10.37,2013-01-01 19:39:00,
2013-01-01 14:40:00,49.5,30.1,29.91,WSW,257,9.2,9.2,47,0.00,CLR,,0.00,WeatherDisplay:10.37,2013-01-01 19:40:00,
2013-01-01 14:41:00,49.5,30.1,29.91,WSW,248,9.2,9.2,47,0.00,CLR,,0.00,WeatherDisplay:10.37,2013-01-01 19:41:00,
2013-01-01 14:43:00,49.7,30.3,29.91,WNW,285,8.1,8.1,47,0.00,CLR,,0.00,WeatherDisplay:10.37,2013-01-01 19:43:00,
2013-01-01 14:46:00,49.8,30.4,29.92,NW,313,5.8,5.8,47,0.00,CLR,,0.00,WeatherDisplay:10.37,2013-01-01 19:46:00,
2013-01-01 14:47:00,49.8,30.4,29.92,NW,313,0.0,0.0,47,0.00,CLR,,0.00,WeatherDisplay:10.37,2013-01-01 19:47:00,
2013-01-01 14:49:00,49.7,30.3,29.92,West,275,8.1,8.1,47,0.00,CLR,,0.00,WeatherDisplay:10.37,2013-01-01 19:49:00,
2013-01-01 14:52:00,49.8,30.4,29.92,West,274,9.2,9.2,47,0.00,CLR,,0.00,WeatherDisplay:10.37,2013-01-01 19:52:00,
2013-01-01 14:53:00,49.8,30.4,29.92,WNW,292,5.2,5.2,47,0.00,CLR,,0.00,WeatherDisplay:10.37,2013-01-01 19:53:00,
2013-01-01 14:54:00,49.6,30.2,29.92,WNW,296,8.1,8.1,47,0.00,CLR,,0.00,WeatherDisplay:10.37,2013-01-01 19:54:00,
2013-01-01 14:56:00,49.7,30.3,29.92,West,260,9.2,9.2,47,0.00,CLR,,0.00,WeatherDisplay:10.37,2013-01-01 19:56:00,
2013-01-01 14:59:00,49.6,30.2,29.93,WSW,257,8.1,8.1,47,0.00,CLR,,0.00,WeatherDisplay:10.37,2013-01-01 19:59:00,
2013-01-01 15:01:00,49.6,30.2,29.93,WNW,287,8.1,8.1,47,0.00,CLR,,0.00,WeatherDisplay:10.37,2013-01-01 20:01:00,
2013-01-01 15:03:00,49.6,30.2,29.93,West,270,7.3,7.3,47,0.00,CLR,,0.00,WeatherDisplay:10.37,2013-01-01 20:03:00,
2013-01-01 15:04:00,49.8,30.4,29.93,WSW,237,6.9,6.9,47,0.00,CLR,,0.00,WeatherDisplay:10.37,2013-01-01 20:04:00,
2013-01-01 15:07:00,49.5,29.6,29.93,West,268,10.4,10.4,46,0.00,CLR,,0.00,WeatherDisplay:10.37,2013-01-01 20:07:00,
2013-01-01 15:08:00,49.6,29.6,29.93,West,263,9.2,9.2,46,0.00,CLR,,0.00,WeatherDisplay:10.37,2013-01-01 20:08:00,
2013-01-01 15:09:00,49.6,29.6,29.93,WNW,301,8.1,8.1,46,0.00,CLR,,0.00,WeatherDisplay:10.37,2013-01-01 20:09:00,
2013-01-01 15:10:00,49.6,29.6,29.93,West,273,6.0,10.0,46,0.00,CLR,,0.00,WeatherDisplay:10.37,2013-01-01 20:10:00,
2013-01-01 15:12:00,49.4,30.0,29.93,WSW,247,4.6,4.6,47,0.00,CLR,,0.00,WeatherDisplay:10.37,2013-01-01 20:12:00,
2013-01-01 15:14:00,49.5,29.6,29.93,WSW,248,9.2,9.2,46,0.00,CLR,,0.00,WeatherDisplay:10.37,2013-01-01 20:14:00,
2013-01-01 15:15:00,49.6,30.2,29.93,NW,311,8.1,8.1,47,0.00,CLR,,0.00,WeatherDisplay:10.37,2013-01-01 20:15:00,
2013-01-01 15:19:00,49.5,30.1,29.94,NW,312,8.1,8.1,47,0.00,CLR,,0.00,WeatherDisplay:10.37,2013-01-01 20:19:00,
2013-01-01 15:20:00,49.5,29.5,29.94,WNW,283,5.0,11.0,46,0.00,CLR,,0.00,WeatherDisplay:10.37,2013-01-01 20:20:00,
2013-01-01 15:21:00,49.6,29.6,29.94,NW,306,8.8,8.8,46,0.00,CLR,,0.00,WeatherDisplay:10.37,2013-01-01 20:21:00,
2013-01-01 15:25:00,49.7,29.7,29.94,WNW,298,5.8,5.8,46,0.00,CLR,,0.00,WeatherDisplay:10.37,2013-01-01 20:25:00,
2013-01-01 15:26:00,49.6,29.6,29.94,WNW,285,10.4,10.4,46,0.00,CLR,,0.00,WeatherDisplay:10.37,2013-01-01 20:26:00,
2013-01-01 15:29:00,49.4,29.5,29.94,WSW,239,8.1,8.1,46,0.00,CLR,,0.00,WeatherDisplay:10.37,2013-01-01 20:29:00,
2013-01-01 15:31:00,49.5,29.6,29.94,West,275,8.1,8.1,46,0.00,CLR,,0.00,WeatherDisplay:10.37,2013-01-01 20:31:00,
2013-01-01 15:32:00,49.7,30.3,29.94,West,271,6.3,6.3,47,0.00,CLR,,0.00,WeatherDisplay:10.37,2013-01-01 20:32:00,
2013-01-01 15:33:00,49.3,29.9,29.94,West,277,8.1,8.1,47,0.00,CLR,,0.00,WeatherDisplay:10.37,2013-01-01 20:33:00,
2013-01-01 15:34:00,49.3,29.9,29.94,SW,229,8.1,8.1,47,0.00,CLR,,0.00,WeatherDisplay:10.37,2013-01-01 20:34:00,
2013-01-01 15:37:00,49.4,30.0,29.94,WNW,291,6.4,6.4,47,0.00,CLR,,0.00,WeatherDisplay:10.37,2013-01-01 20:37:00,
2013-01-01 15:39:00,49.1,29.7,29.94,NW,309,6.9,6.9,47,0.00,CLR,,0.00,WeatherDisplay:10.37,2013-01-01 20:39:00,
2013-01-01 15:40:00,49.4,30.0,29.94,NW,309,3.5,0.0,47,0.00,CLR,,0.00,WeatherDisplay:10.37,2013-01-01 20:40:00,
2013-01-01 15:43:00,49.3,29.9,29.94,WNW,287,5.8,5.8,47,0.00,CLR,,0.00,WeatherDisplay:10.37,2013-01-01 20:43:00,
2013-01-01 15:44:00,49.3,29.9,29.94,West,265,4.6,4.6,47,0.00,CLR,,0.00,WeatherDisplay:10.37,2013-01-01 20:44:00,
2013-01-01 15:45:00,49.4,30.5,29.94,West,264,6.5,6.5,48,0.00,CLR,,0.00,WeatherDisplay:10.37,2013-01-01 20:45:00,
2013-01-01 15:47:00,49.3,29.9,29.94,NW,309,6.9,6.9,47,0.00,CLR,,0.00,WeatherDisplay:10.37,2013-01-01 20:47:00,
2013-01-01 15:48:00,49.2,29.8,29.94,NW,309,5.8,5.8,47,0.00,CLR,,0.00,WeatherDisplay:10.37,2013-01-01 20:48:00,
2013-01-01 15:49:00,49.1,30.2,29.94,WNW,284,5.3,5.3,48,0.00,CLR,,0.00,WeatherDisplay:10.37,2013-01-01 20:49:00,
2013-01-01 15:50:00,49.1,30.2,29.93,WNW,291,8.1,8.1,48,0.00,CLR,,0.00,WeatherDisplay:10.37,2013-01-01 20:50:00,
2013-01-01 15:53:00,48.8,30.0,29.94,North,8,6.9,6.9,48,0.00,CLR,,0.00,WeatherDisplay:10.37,2013-01-01 20:53:00,
2013-01-01 15:54:00,48.6,28.2,29.94,North,11,6.9,6.9,45,0.00,CLR,,0.00,WeatherDisplay:10.37,2013-01-01 20:54:00,
2013-01-01 15:56:00,48.5,27.6,29.94,North,360,5.8,0.0,44,0.00,CLR,,0.00,WeatherDisplay:10.37,2013-01-01 20:56:00,
2013-01-01 15:58:00,48.5,27.6,29.94,North,354,8.1,8.1,44,0.00,CLR,,0.00,WeatherDisplay:10.37,2013-01-01 20:58:00,
2013-01-01 15:59:00,48.4,27.5,29.94,NW,311,6.9,6.9,44,0.00,CLR,,0.00,WeatherDisplay:10.37,2013-01-01 20:59:00,
2013-01-01 16:01:00,48.2,27.8,29.95,North,354,5.3,5.3,45,0.00,CLR,,0.00,WeatherDisplay:10.37,2013-01-01 21:01:00,
2013-01-01 16:04:00,48.0,27.6,29.94,North,6,6.9,6.9,45,0.00,CLR,,0.00,WeatherDisplay:10.37,2013-01-01 21:04:00,
2013-01-01 16:05:00,48.1,27.7,29.94,North,4,7.8,7.8,45,0.00,CLR,,0.00,WeatherDisplay:10.37,2013-01-01 21:05:00,
2013-01-01 16:09:00,48.1,27.7,29.93,North,1,4.6,4.6,45,0.00,CLR,,0.00,WeatherDisplay:10.37,2013-01-01 21:09:00,
2013-01-01 16:10:00,48.1,27.7,29.93,NNW,342,3.5,3.5,45,0.00,CLR,,0.00,WeatherDisplay:10.37,2013-01-01 21:10:00,
2013-01-01 16:12:00,47.9,28.1,29.93,NNW,342,0.0,0.0,46,0.00,CLR,,0.00,WeatherDisplay:10.37,2013-01-01 21:12:00,
2013-01-01 16:15:00,48.0,28.2,29.94,North,0,0.0,3.0,46,0.00,CLR,,0.00,WeatherDisplay:10.37,2013-01-01 21:15:00,
2013-01-01 16:16:00,48.1,28.3,29.94,NNW,342,0.0,0.0,46,0.00,CLR,,0.00,WeatherDisplay:10.37,2013-01-01 21:16:00,
2013-01-01 16:18:00,48.1,28.3,29.94,North,10,5.8,0.0,46,0.00,CLR,,0.00,WeatherDisplay:10.37,2013-01-01 21:18:00,
2013-01-01 16:20:00,47.9,28.1,29.94,North,10,5.8,5.8,46,0.00,CLR,,0.00,WeatherDisplay:10.37,2013-01-01 21:20:00,
2013-01-01 16:21:00,47.9,28.1,29.94,NNW,344,4.6,4.6,46,0.00,CLR,,0.00,WeatherDisplay:10.37,2013-01-01 21:21:00,
2013-01-01 16:22:00,48.0,28.2,29.94,NNW,347,4.6,4.6,46,0.00,CLR,,0.00,WeatherDisplay:10.37,2013-01-01 21:22:00,
2013-01-01 16:24:00,48.0,28.2,29.94,NNW,347,0.0,0.0,46,0.00,CLR,,0.00,WeatherDisplay:10.37,2013-01-01 21:24:00,
2013-01-01 16:25:00,48.0,28.2,29.95,NNW,347,0.0,0.0,46,0.00,CLR,,0.00,WeatherDisplay:10.37,2013-01-01 21:25:00,
2013-01-01 16:26:00,48.0,28.2,29.95,NNW,347,0.0,0.0,46,0.00,CLR,,0.00,WeatherDisplay:10.37,2013-01-01 21:26:00,
2013-01-01 16:30:00,47.8,28.0,29.95,NNE,13,5.8,5.8,46,0.00,CLR,,0.00,WeatherDisplay:10.37,2013-01-01 21:30:00,
2013-01-01 16:31:00,47.8,28.0,29.95,NNE,13,5.8,0.0,46,0.00,CLR,,0.00,WeatherDisplay:10.37,2013-01-01 21:31:00,
2013-01-01 16:32:00,48.0,28.2,29.95,NNE,13,0.0,0.4,46,0.00,CLR,,0.00,WeatherDisplay:10.37,2013-01-01 21:32:00,
2013-01-01 16:35:00,48.0,28.2,29.95,NW,319,5.8,5.8,46,0.00,CLR,,0.00,WeatherDisplay:10.37,2013-01-01 21:35:00,
2013-01-01 16:37:00,48.1,28.8,29.95,NW,319,0.0,0.0,47,0.00,CLR,,0.00,WeatherDisplay:10.37,2013-01-01 21:37:00,
2013-01-01 16:38:00,48.1,28.8,29.95,NW,319,0.0,0.0,47,0.00,CLR,,0.00,WeatherDisplay:10.37,2013-01-01 21:38:00,
2013-01-01 16:40:00,48.2,28.4,29.95,NW,319,0.0,0.0,46,0.00,CLR,,0.00,WeatherDisplay:10.37,2013-01-01 21:40:00,
2013-01-01 16:42:00,48.0,28.7,29.95,NW,319,0.0,0.0,47,0.00,CLR,,0.00,WeatherDisplay:10.37,2013-01-01 21:42:00,
2013-01-01 16:43:00,48.0,28.7,29.95,NW,319,0.0,0.0,47,0.00,CLR,,0.00,WeatherDisplay:10.37,2013-01-01 21:43:00,
2013-01-01 16:45:00,48.1,28.8,29.95,NW,319,0.0,0.0,47,0.00,CLR,,0.00,WeatherDisplay:10.37,2013-01-01 21:45:00,
2013-01-01 16:46:00,48.0,28.7,29.95,NW,319,0.0,0.0,47,0.00,CLR,,0.00,WeatherDisplay:10.37,2013-01-01 21:46:00,
2013-01-01 16:48:00,48.1,28.8,29.95,NW,319,0.0,0.0,47,0.00,CLR,,0.00,WeatherDisplay:10.37,2013-01-01 21:48:00,
2013-01-01 16:49:00,48.1,28.8,29.95,NW,319,0.0,0.0,47,0.00,CLR,,0.00,WeatherDisplay:10.37,2013-01-01 21:49:00,
2013-01-01 16:51:00,48.2,28.9,29.96,NW,319,0.0,0.0,47,0.00,CLR,,0.00,WeatherDisplay:10.37,2013-01-01 21:51:00,
2013-01-01 16:52:00,48.1,28.8,29.95,NW,319,0.0,0.0,47,0.00,CLR,,0.00,WeatherDisplay:10.37,2013-01-01 21:52:00,
2013-01-01 16:54:00,47.9,28.6,29.95,NW,313,6.7,6.7,47,0.00,CLR,,0.00,WeatherDisplay:10.37,2013-01-01 21:54:00,
2013-01-01 16:55:00,47.9,28.6,29.95,North,354,6.9,6.9,47,0.00,CLR,,0.00,WeatherDisplay:10.37,2013-01-01 21:55:00,
2013-01-01 16:56:00,47.8,28.5,29.95,North,354,4.6,0.0,47,0.00,CLR,,0.00,WeatherDisplay:10.37,2013-01-01 21:56:00,
2013-01-01 16:57:00,47.8,28.5,29.95,North,354,0.0,0.0,47,0.00,CLR,,0.00,WeatherDisplay:10.37,2013-01-01 21:57:00,
2013-01-01 16:59:00,47.9,28.6,29.95,North,354,0.0,0.0,47,0.00,CLR,,0.00,WeatherDisplay:10.37,2013-01-01 21:59:00,
2013-01-01 17:00:00,47.9,28.6,29.95,NNW,344,0.0,5.0,47,0.00,CLR,,0.00,WeatherDisplay:10.37,2013-01-01 22:00:00,
2013-01-01 17:02:00,48.0,28.7,29.95,North,354,0.0,0.0,47,0.00,CLR,,0.00,WeatherDisplay:10.37,2013-01-01 22:02:00,
2013-01-01 17:05:00,47.8,29.0,29.95,North,354,0.0,0.0,48,0.00,CLR,,0.00,WeatherDisplay:10.37,2013-01-01 22:05:00,
2013-01-01 17:06:00,47.8,29.0,29.95,North,354,0.0,0.0,48,0.00,CLR,,0.00,WeatherDisplay:10.37,2013-01-01 22:06:00,
2013-01-01 17:07:00,47.8,29.0,29.95,North,354,0.0,0.0,48,0.00,CLR,,0.00,WeatherDisplay:10.37,2013-01-01 22:07:00,
2013-01-01 17:08:00,47.8,29.0,29.95,North,354,0.0,0.0,48,0.00,CLR,,0.00,WeatherDisplay:10.37,2013-01-01 22:08:00,
2013-01-01 17:10:00,47.9,29.1,29.96,NW,325,6.8,6.8,48,0.00,CLR,,0.00,WeatherDisplay:10.37,2013-01-01 22:10:00,
2013-01-01 17:11:00,47.7,28.9,29.96,NW,320,6.9,6.9,48,0.00,CLR,,0.00,WeatherDisplay:10.37,2013-01-01 22:11:00,
2013-01-01 17:12:00,47.8,29.0,29.96,North,360,6.5,6.5,48,0.00,CLR,,0.00,WeatherDisplay:10.37,2013-01-01 22:12:00,
2013-01-01 17:14:00,47.8,29.0,29.96,North,353,5.8,5.8,48,0.00,CLR,,0.00,WeatherDisplay:10.37,2013-01-01 22:14:00,
2013-01-01 17:17:00,47.8,29.0,29.95,NNW,328,5.8,5.8,48,0.00,CLR,,0.00,WeatherDisplay:10.37,2013-01-01 22:17:00,
2013-01-01 17:19:00,47.8,29.0,29.95,NNW,343,8.1,8.1,48,0.00,CLR,,0.00,WeatherDisplay:10.37,2013-01-01 22:19:00,
2013-01-01 17:20:00,47.8,28.5,29.95,North,360,2.3,2.3,47,0.00,CLR,,0.00,WeatherDisplay:10.37,2013-01-01 22:20:00,
2013-01-01 17:23:00,47.4,28.7,29.95,North,10,5.8,0.0,48,0.00,CLR,,0.00,WeatherDisplay:10.37,2013-01-01 22:23:00,
2013-01-01 17:24:00,47.4,28.7,29.95,North,349,9.6,9.6,48,0.00,CLR,,0.00,WeatherDisplay:10.37,2013-01-01 22:24:00,
2013-01-01 17:25:00,47.1,28.4,29.95,NW,315,9.6,9.6,48,0.00,CLR,,0.00,WeatherDisplay:10.37,2013-01-01 22:25:00,
2013-01-01 17:26:00,47.2,28.5,29.95,NNW,335,11.5,11.5,48,0.00,CLR,,0.00,WeatherDisplay:10.37,2013-01-01 22:26:00,
2013-01-01 17:29:00,46.9,28.7,29.95,NNW,340,4.6,4.6,49,0.00,CLR,,0.00,WeatherDisplay:10.37,2013-01-01 22:29:00,
2013-01-01 17:31:00,46.8,28.6,29.96,North,353,5.3,5.3,49,0.00,CLR,,0.00,WeatherDisplay:10.37,2013-01-01 22:31:00,
2013-01-01 17:32:00,46.7,28.5,29.95,North,7,6.9,6.9,49,0.00,CLR,,0.00,WeatherDisplay:10.37,2013-01-01 22:32:00,
2013-01-01 17:35:00,46.4,28.3,29.95,NNW,337,8.1,8.1,49,0.00,CLR,,0.00,WeatherDisplay:10.37,2013-01-01 22:35:00,
2013-01-01 17:36:00,46.4,28.8,29.95,North,353,10.4,10.4,50,0.00,CLR,,0.00,WeatherDisplay:10.37,2013-01-01 22:36:00,
2013-01-01 17:38:00,46.3,28.7,29.95,North,7,9.2,9.2,50,0.00,CLR,,0.00,WeatherDisplay:10.37,2013-01-01 22:38:00,
2013-01-01 17:41:00,46.1,28.5,29.96,North,0,8.1,8.1,50,0.00,CLR,,0.00,WeatherDisplay:10.37,2013-01-01 22:41:00,
2013-01-01 17:44:00,46.1,28.5,29.96,North,360,6.9,6.9,50,0.00,CLR,,0.00,WeatherDisplay:10.37,2013-01-01 22:44:00,
2013-01-01 17:45:00,46.3,28.7,29.96,North,360,0.0,0.0,50,0.00,CLR,,0.00,WeatherDisplay:10.37,2013-01-01 22:45:00,
2013-01-01 17:46:00,46.2,29.1,29.96,NNW,344,8.1,8.1,51,0.00,CLR,,0.00,WeatherDisplay:10.37,2013-01-01 22:46:00,
2013-01-01 17:49:00,46.0,28.9,29.96,North,352,7.1,7.1,51,0.00,CLR,,0.00,WeatherDisplay:10.37,2013-01-01 22:49:00,
2013-01-01 17:51:00,46.1,29.0,29.96,North,360,8.1,8.1,51,0.00,CLR,,0.00,WeatherDisplay:10.37,2013-01-01 22:51:00,
2013-01-01 17:52:00,46.1,29.0,29.96,North,360,6.9,6.9,51,0.00,CLR,,0.00,WeatherDisplay:10.37,2013-01-01 22:52:00,
2013-01-01 17:54:00,46.1,29.0,29.96,North,357,6.9,6.9,51,0.00,CLR,,0.00,WeatherDisplay:10.37,2013-01-01 22:54:00,
2013-01-01 17:58:00,46.1,29.0,29.97,NNW,332,4.6,0.0,51,0.00,CLR,,0.00,WeatherDisplay:10.37,2013-01-01 22:58:00,
2013-01-01 17:59:00,46.0,28.9,29.97,NNW,337,6.9,6.9,51,0.00,CLR,,0.00,WeatherDisplay:10.37,2013-01-01 22:59:00,
2013-01-01 18:00:00,46.0,29.3,29.97,NNW,337,6.9,6.9,52,0.00,CLR,,0.00,WeatherDisplay:10.37,2013-01-01 23:00:00,
2013-01-01 18:01:00,45.9,29.2,29.98,NNW,335,6.9,6.9,52,0.00,CLR,,0.00,WeatherDisplay:10.37,2013-01-01 23:01:00,
2013-01-01 18:03:00,45.9,29.2,29.97,NNW,337,8.1,8.1,52,0.00,CLR,,0.00,WeatherDisplay:10.37,2013-01-01 23:03:00,
2013-01-01 18:05:00,45.8,28.7,29.97,NNW,343,10.4,10.4,51,0.00,CLR,,0.00,WeatherDisplay:10.37,2013-01-01 23:05:00,
2013-01-01 18:08:00,45.9,28.8,29.98,North,356,8.1,8.1,51,0.00,CLR,,0.00,WeatherDisplay:10.37,2013-01-01 23:08:00,
2013-01-01 18:09:00,45.8,28.2,29.98,NNW,335,12.5,12.5,50,0.00,CLR,,0.00,WeatherDisplay:10.37,2013-01-01 23:09:00,
2013-01-01 18:10:00,45.7,28.1,29.98,NW,309,13.8,13.8,50,0.00,CLR,,0.00,WeatherDisplay:10.37,2013-01-01 23:10:00,
2013-01-01 18:14:00,45.7,28.1,29.98,NNW,330,11.5,11.5,50,0.00,CLR,,0.00,WeatherDisplay:10.37,2013-01-01 23:14:00,
2013-01-01 18:15:00,45.6,28.0,29.98,NNW,331,6.0,14.0,50,0.00,CLR,,0.00,WeatherDisplay:10.37,2013-01-01 23:15:00,
2013-01-01 18:20:00,45.5,27.5,29.98,NNW,332,7.0,14.0,49,0.00,CLR,,0.00,WeatherDisplay:10.37,2013-01-01 23:20:00,
2013-01-01 18:21:00,45.4,26.8,29.97,West,280,9.2,9.2,48,0.00,CLR,,0.00,WeatherDisplay:10.37,2013-01-01 23:21:00,
2013-01-01 18:23:00,45.6,27.0,29.97,NW,323,11.5,11.5,48,0.00,CLR,,0.00,WeatherDisplay:10.37,2013-01-01 23:23:00,
2013-01-01 18:26:00,45.5,26.4,29.97,NNW,346,11.5,11.5,47,0.00,CLR,,0.00,WeatherDisplay:10.37,2013-01-01 23:26:00,
2013-01-01 18:27:00,45.4,26.3,29.97,NW,318,11.5,11.5,47,0.00,CLR,,0.00,WeatherDisplay:10.37,2013-01-01 23:27:00,
2013-01-01 18:29:00,45.5,26.4,29.97,NNW,330,9.5,9.5,47,0.00,CLR,,0.00,WeatherDisplay:10.37,2013-01-01 23:29:00,
2013-01-01 18:32:00,45.6,26.0,29.97,NW,318,9.3,9.3,46,0.00,CLR,,0.00,WeatherDisplay:10.37,2013-01-01 23:32:00,
2013-01-01 18:34:00,45.6,26.0,29.97,NNW,328,10.4,10.4,46,0.00,CLR,,0.00,WeatherDisplay:10.37,2013-01-01 23:34:00,
2013-01-01 18:38:00,45.6,25.5,29.98,NW,323,10.4,10.4,45,0.00,CLR,,0.00,WeatherDisplay:10.37,2013-01-01 23:38:00,
2013-01-01 18:39:00,45.7,25.5,29.98,NNW,329,10.4,10.4,45,0.00,CLR,,0.00,WeatherDisplay:10.37,2013-01-01 23:39:00,
2013-01-01 18:40:00,45.6,25.5,29.98,NNW,329,9.2,9.2,45,0.00,CLR,,0.00,WeatherDisplay:10.37,2013-01-01 23:40:00,
2013-01-01 18:42:00,45.7,25.5,29.97,North,349,10.4,10.4,45,0.00,CLR,,0.00,WeatherDisplay:10.37,2013-01-01 23:42:00,
2013-01-01 18:43:00,45.7,25.0,29.97,NNW,343,6.1,6.1,44,0.00,CLR,,0.00,WeatherDisplay:10.37,2013-01-01 23:43:00,
2013-01-01 18:45:00,45.7,25.0,29.98,NNW,332,7.0,12.0,44,0.00,CLR,,0.00,WeatherDisplay:10.37,2013-01-01 23:45:00,
2013-01-01 18:47:00,45.7,25.0,29.99,WNW,285,9.2,9.2,44,0.00,CLR,,0.00,WeatherDisplay:10.37,2013-01-01 23:47:00,
2013-01-01 18:49:00,45.8,25.1,29.98,NW,319,8.3,8.3,44,0.00,CLR,,0.00,WeatherDisplay:10.37,2013-01-01 23:49:00,
2013-01-01 18:50:00,45.7,25.0,29.98,NW,325,5.0,12.0,44,0.00,CLR,,0.00,WeatherDisplay:10.37,2013-01-01 23:50:00,
2013-01-01 18:55:00,45.7,25.0,29.98,NNW,336,9.2,9.2,44,0.00,CLR,,0.00,WeatherDisplay:10.37,2013-01-01 23:55:00,
2013-01-01 18:56:00,45.6,24.9,29.98,NNW,336,3.5,0.0,44,0.00,CLR,,0.00,WeatherDisplay:10.37,2013-01-01 23:56:00,
2013-01-01 18:58:00,45.7,25.0,29.98,NNW,336,0.0,0.0,44,0.00,CLR,,0.00,WeatherDisplay:10.37,2013-01-01 23:58:00,
2013-01-01 19:01:00,45.7,25.0,29.98,NNW,336,0.0,0.0,44,0.00,CLR,,0.00,WeatherDisplay:10.37,2013-01-02 00:01:00,
2013-01-01 19:02:00,45.8,25.1,29.98,NNW,336,0.0,0.0,44,0.00,CLR,,0.00,WeatherDisplay:10.37,2013-01-02 00:02:00,
2013-01-01 19:04:00,45.8,25.1,29.98,NNW,336,0.0,0.0,44,0.00,CLR,,0.00,WeatherDisplay:10.37,2013-01-02 00:04:00,
2013-01-01 19:05:00,45.8,25.1,29.98,NNW,336,0.0,0.0,44,0.00,CLR,,0.00,WeatherDisplay:10.37,2013-01-02 00:05:00,
2013-01-01 19:08:00,45.7,25.0,29.98,NNW,336,0.0,0.0,44,0.00,CLR,,0.00,WeatherDisplay:10.37,2013-01-02 00:08:00,
2013-01-01 19:11:00,45.7,25.0,29.98,NNW,336,0.0,0.0,44,0.00,CLR,,0.00,WeatherDisplay:10.37,2013-01-02 00:11:00,
2013-01-01 19:13:00,45.9,25.2,29.98,NNW,336,0.0,0.0,44,0.00,CLR,,0.00,WeatherDisplay:10.37,2013-01-02 00:13:00,
2013-01-01 19:17:00,45.8,25.1,29.98,NNW,336,0.0,0.0,44,0.00,CLR,,0.00,WeatherDisplay:10.37,2013-01-02 00:17:00,
2013-01-01 19:19:00,46.0,25.3,29.98,NNW,336,0.0,0.0,44,0.00,CLR,,0.00,WeatherDisplay:10.37,2013-01-02 00:19:00,
2013-01-01 19:20:00,46.0,25.3,29.98,NNW,336,0.0,0.0,44,0.00,CLR,,0.00,WeatherDisplay:10.37,2013-01-02 00:20:00,
2013-01-01 19:25:00,46.0,25.8,29.98,NNW,336,0.0,0.0,45,0.00,CLR,,0.00,WeatherDisplay:10.37,2013-01-02 00:25:00,
2013-01-01 19:26:00,46.1,25.9,29.98,NNW,336,0.0,0.0,45,0.00,CLR,,0.00,WeatherDisplay:10.37,2013-01-02 00:26:00,
2013-01-01 19:31:00,46.0,25.8,29.97,NNW,336,0.0,0.0,45,0.00,CLR,,0.00,WeatherDisplay:10.37,2013-01-02 00:31:00,
2013-01-01 19:32:00,46.1,25.9,29.98,NNW,336,0.0,0.0,45,0.00,CLR,,0.00,WeatherDisplay:10.37,2013-01-02 00:32:00,
2013-01-01 19:33:00,46.1,25.9,29.98,NNW,336,0.0,0.0,45,0.00,CLR,,0.00,WeatherDisplay:10.37,2013-01-02 00:33:00,
2013-01-01 19:37:00,46.1,25.9,29.97,NNW,336,0.0,0.0,45,0.00,CLR,,0.00,WeatherDisplay:10.37,2013-01-02 00:37:00,
2013-01-01 19:38:00,46.1,25.9,29.97,NNW,336,0.0,0.0,45,0.00,CLR,,0.00,WeatherDisplay:10.37,2013-01-02 00:38:00,
2013-01-01 19:39:00,46.0,25.8,29.97,NNW,336,0.0,0.0,45,0.00,CLR,,0.00,WeatherDisplay:10.37,2013-01-02 00:39:00,
2013-01-01 19:43:00,46.0,25.8,29.97,NNW,336,0.0,0.0,45,0.00,CLR,,0.00,WeatherDisplay:10.37,2013-01-02 00:43:00,
2013-01-01 19:44:00,46.0,26.4,29.97,NNW,336,0.0,0.0,46,0.00,CLR,,0.00,WeatherDisplay:10.37,2013-01-02 00:44:00,
2013-01-01 19:45:00,46.0,26.4,29.97,NNW,336,0.0,0.0,46,0.00,CLR,,0.00,WeatherDisplay:10.37,2013-01-02 00:45:00,
2013-01-01 19:49:00,45.9,26.3,29.97,NNW,336,0.0,0.0,46,0.00,CLR,,0.00,WeatherDisplay:10.37,2013-01-02 00:49:00,
2013-01-01 19:50:00,45.9,26.3,29.97,NNW,336,0.0,0.0,46,0.00,CLR,,0.00,WeatherDisplay:10.37,2013-01-02 00:50:00,
2013-01-01 19:51:00,46.0,26.4,29.97,NNW,336,0.0,0.0,46,0.00,CLR,,0.00,WeatherDisplay:10.37,2013-01-02 00:51:00,
2013-01-01 19:54:00,45.8,26.2,29.97,NNW,336,0.0,0.0,46,0.00,CLR,,0.00,WeatherDisplay:10.37,2013-01-02 00:54:00,
2013-01-01 19:55:00,45.8,26.2,29.97,NNW,336,0.0,0.0,46,0.00,CLR,,0.00,WeatherDisplay:10.37,2013-01-02 00:55:00,
2013-01-01 19:56:00,45.7,26.1,29.97,NNW,336,0.0,0.0,46,0.00,CLR,,0.00,WeatherDisplay:10.37,2013-01-02 00:56:00,
2013-01-01 19:58:00,45.7,26.6,29.97,NNW,336,0.0,0.0,47,0.00,CLR,,0.00,WeatherDisplay:10.37,2013-01-02 00:58:00,
2013-01-01 20:00:00,45.7,26.6,29.97,NNW,336,0.0,0.0,47,0.00,CLR,,0.00,WeatherDisplay:10.37,2013-01-02 01:00:00,
2013-01-01 20:03:00,45.8,27.2,29.96,NNW,336,0.0,0.0,48,0.00,CLR,,0.00,WeatherDisplay:10.37,2013-01-02 01:03:00,
2013-01-01 20:05:00,45.8,27.2,29.96,NNW,336,0.0,0.0,48,0.00,CLR,,0.00,WeatherDisplay:10.37,2013-01-02 01:05:00,
2013-01-01 20:06:00,45.9,27.3,29.96,NNW,336,0.0,0.0,48,0.00,CLR,,0.00,WeatherDisplay:10.37,2013-01-02 01:06:00,
2013-01-01 20:10:00,45.9,27.3,29.96,NNW,336,0.0,0.0,48,0.00,CLR,,0.00,WeatherDisplay:10.37,2013-01-02 01:10:00,
2013-01-01 20:13:00,45.9,27.3,29.96,NNW,336,0.0,0.0,48,0.00,CLR,,0.00,WeatherDisplay:10.37,2013-01-02 01:13:00,
2013-01-01 20:15:00,45.9,27.3,29.96,NNW,336,0.0,0.0,48,0.00,CLR,,0.00,WeatherDisplay:10.37,2013-01-02 01:15:00,
2013-01-01 20:16:00,45.9,27.3,29.96,NNW,336,0.0,0.0,48,0.00,CLR,,0.00,WeatherDisplay:10.37,2013-01-02 01:16:00,
2013-01-01 20:20:00,45.6,28.0,29.96,NNW,336,0.0,0.0,50,0.00,CLR,,0.00,WeatherDisplay:10.37,2013-01-02 01:20:00,
2013-01-01 20:21:00,45.7,27.6,29.96,NNW,336,0.0,0.0,49,0.00,CLR,,0.00,WeatherDisplay:10.37,2013-01-02 01:21:00,
2013-01-01 20:22:00,45.6,27.5,29.96,NNW,336,0.0,0.0,49,0.00,CLR,,0.00,WeatherDisplay:10.37,2013-01-02 01:22:00,
2013-01-01 20:25:00,45.6,27.5,29.96,NNW,336,0.0,0.0,49,0.00,CLR,,0.00,WeatherDisplay:10.37,2013-01-02 01:25:00,
2013-01-01 20:26:00,45.7,27.6,29.97,NNW,336,0.0,0.0,49,0.00,CLR,,0.00,WeatherDisplay:10.37,2013-01-02 01:26:00,
2013-01-01 20:27:00,45.6,27.5,29.96,NNW,336,0.0,0.0,49,0.00,CLR,,0.00,WeatherDisplay:10.37,2013-01-02 01:27:00,
2013-01-01 20:30:00,45.4,27.8,29.96,NNW,336,0.0,0.0,50,0.00,CLR,,0.00,WeatherDisplay:10.37,2013-01-02 01:30:00,
2013-01-01 20:33:00,45.7,27.1,29.97,NNW,336,0.0,0.0,48,0.00,CLR,,0.00,WeatherDisplay:10.37,2013-01-02 01:33:00,
2013-01-01 20:35:00,45.7,26.6,29.97,WSW,244,5.1,5.1,47,0.00,CLR,,0.00,WeatherDisplay:10.37,2013-01-02 01:35:00,
2013-01-01 20:38:00,45.9,26.8,29.97,WSW,257,6.9,6.9,47,0.00,CLR,,0.00,WeatherDisplay:10.37,2013-01-02 01:38:00,
2013-01-01 20:40:00,46.0,26.9,29.97,West,268,0.0,10.0,47,0.00,CLR,,0.00,WeatherDisplay:10.37,2013-01-02 01:40:00,
2013-01-01 20:42:00,45.7,27.6,29.98,WNW,299,0.0,0.4,49,0.00,CLR,,0.00,WeatherDisplay:10.37,2013-01-02 01:42:00,
2013-01-01 20:44:00,45.3,26.2,29.98,NW,313,12.7,12.7,47,0.00,CLR,,0.00,WeatherDisplay:10.37,2013-01-02 01:44:00,
2013-01-01 20:45:00,45.4,26.4,29.98,West,274,7.0,13.0,47,0.00,CLR,,0.00,WeatherDisplay:10.37,2013-01-02 01:45:00,
2013-01-01 20:48:00,45.4,26.3,29.98,NW,316,4.6,0.0,47,0.00,CLR,,0.00,WeatherDisplay:10.37,2013-01-02 01:48:00,
2013-01-01 20:50:00,45.4,26.8,29.98,NW,320,3.4,3.4,48,0.00,CLR,,0.00,WeatherDisplay:10.37,2013-01-02 01:50:00,
2013-01-01 20:54:00,44.7,27.2,29.97,NW,318,6.9,6.9,50,0.00,CLR,,0.00,WeatherDisplay:10.37,2013-01-02 01:54:00,
2013-01-01 20:56:00,44.8,27.3,29.97,NNW,333,9.2,9.2,50,0.00,CLR,,0.00,WeatherDisplay:10.37,2013-01-02 01:56:00,
2013-01-01 20:57:00,44.8,28.2,29.97,North,349,10.4,10.4,52,0.00,CLR,,0.00,WeatherDisplay:10.37,2013-01-02 01:57:00,
2013-01-01 20:58:00,44.9,28.3,29.97,NNW,329,5.8,5.8,52,0.00,CLR,,0.00,WeatherDisplay:10.37,2013-01-02 01:58:00,
2013-01-01 21:01:00,44.7,30.8,29.97,NNW,336,0.0,0.0,58,0.00,CLR,,0.00,WeatherDisplay:10.37,2013-01-02 02:01:00,
2013-01-01 21:02:00,44.5,30.6,29.97,North,352,5.8,5.8,58,0.00,CLR,,0.00,WeatherDisplay:10.37,2013-01-02 02:02:00,
2013-01-01 21:04:00,44.4,30.5,29.98,North,352,6.9,6.9,58,0.00,CLR,,0.00,WeatherDisplay:10.37,2013-01-02 02:04:00,
2013-01-01 21:06:00,44.4,30.5,29.98,NW,313,8.1,8.1,58,0.00,CLR,,0.00,WeatherDisplay:10.37,2013-01-02 02:06:00,
2013-01-01 21:08:00,44.3,30.4,29.98,NW,313,5.8,5.8,58,0.00,CLR,,0.00,WeatherDisplay:10.37,2013-01-02 02:08:00,
2013-01-01 21:09:00,44.3,30.4,29.98,West,278,6.5,6.5,58,0.00,CLR,,0.00,WeatherDisplay:10.37,2013-01-02 02:09:00,
2013-01-01 21:13:00,44.2,31.2,29.98,WNW,285,6.9,6.9,60,0.00,CLR,,0.00,WeatherDisplay:10.37,2013-01-02 02:13:00,
2013-01-01 21:14:00,44.1,31.1,29.99,NW,312,6.8,6.8,60,0.00,CLR,,0.00,WeatherDisplay:10.37,2013-01-02 02:14:00,
2013-01-01 21:17:00,44.1,30.7,29.99,NW,323,6.9,6.9,59,0.00,CLR,,0.00,WeatherDisplay:10.37,2013-01-02 02:17:00,
2013-01-01 21:19:00,44.1,30.7,29.99,NNW,344,6.9,6.9,59,0.00,CLR,,0.00,WeatherDisplay:10.37,2013-01-02 02:19:00,
2013-01-01 21:21:00,44.1,30.3,29.99,NW,318,7.1,7.1,58,0.00,CLR,,0.00,WeatherDisplay:10.37,2013-01-02 02:21:00,
2013-01-01 21:24:00,44.0,31.8,29.99,NNW,335,4.6,4.6,62,0.00,CLR,,0.00,WeatherDisplay:10.37,2013-01-02 02:24:00,
2013-01-01 21:26:00,43.8,31.6,29.99,NNW,335,0.0,0.0,62,0.00,CLR,,0.00,WeatherDisplay:10.37,2013-01-02 02:26:00,
2013-01-01 21:27:00,44.0,31.4,29.99,NNW,335,0.0,0.0,61,0.00,CLR,,0.00,WeatherDisplay:10.37,2013-01-02 02:27:00,
2013-01-01 21:29:00,43.9,30.9,29.99,WNW,296,4.7,4.7,60,0.00,CLR,,0.00,WeatherDisplay:10.37,2013-01-02 02:29:00,
2013-01-01 21:30:00,44.0,30.6,29.99,WNW,301,4.6,4.6,59,0.00,CLR,,0.00,WeatherDisplay:10.37,2013-01-02 02:30:00,
2013-01-01 21:32:00,44.1,28.9,30.00,North,353,4.6,0.0,55,0.00,CLR,,0.00,WeatherDisplay:10.37,2013-01-02 02:32:00,
2013-01-01 21:36:00,44.1,28.9,29.99,NW,325,0.0,0.0,55,0.00,CLR,,0.00,WeatherDisplay:10.37,2013-01-02 02:36:00,
2013-01-01 21:37:00,44.2,29.9,29.99,NW,325,0.0,0.0,57,0.00,CLR,,0.00,WeatherDisplay:10.37,2013-01-02 02:37:00,
2013-01-01 21:40:00,44.0,30.1,29.99,NNW,332,0.0,3.0,58,0.00,CLR,,0.00,WeatherDisplay:10.37,2013-01-02 02:40:00,
2013-01-01 21:41:00,43.9,30.1,29.99,NW,320,0.0,0.0,58,0.01,RA,,0.01,WeatherDisplay:10.37,2013-01-02 02:41:00,
2013-01-01 21:42:00,43.9,30.5,30.00,NW,320,0.0,0.0,59,0.01,RA,,0.01,WeatherDisplay:10.37,2013-01-02 02:42:00,
2013-01-01 21:43:00,43.9,30.9,30.00,NW,320,0.0,0.0,60,0.01,RA,,0.01,WeatherDisplay:10.37,2013-01-02 02:43:00,
2013-01-01 21:45:00,44.0,31.4,30.00,NW,320,0.0,0.0,61,0.01,RA,,0.01,WeatherDisplay:10.37,2013-01-02 02:45:00,
2013-01-01 21:48:00,43.9,32.5,29.99,NW,320,0.0,0.0,64,0.01,RA,,0.01,WeatherDisplay:10.37,2013-01-02 02:48:00,
2013-01-01 21:50:00,43.6,32.6,30.00,NW,320,0.0,0.0,65,0.01,RA,,0.01,WeatherDisplay:10.37,2013-01-02 02:50:00,
2013-01-01 21:51:00,43.7,33.1,30.00,NW,320,0.0,0.0,66,0.01,,,0.01,WeatherDisplay:10.37,2013-01-02 02:51:00,
2013-01-01 21:54:00,43.3,32.3,30.00,NW,320,0.0,0.0,65,0.01,CLR,,0.01,WeatherDisplay:10.37,2013-01-02 02:54:00,
2013-01-01 21:57:00,43.0,32.4,30.00,NW,320,0.0,0.0,66,0.01,CLR,,0.01,WeatherDisplay:10.37,2013-01-02 02:57:00,
2013-01-01 21:58:00,43.1,32.5,30.00,NW,320,0.0,0.0,66,0.01,CLR,,0.01,WeatherDisplay:10.37,2013-01-02 02:58:00,
2013-01-01 22:00:00,43.0,33.1,30.00,NW,320,0.0,0.0,68,0.00,,,0.01,WeatherDisplay:10.37,2013-01-02 03:00:00,
2013-01-01 22:01:00,42.9,34.5,30.00,NW,320,0.0,0.0,72,0.01,CLR,,0.01,WeatherDisplay:10.37,2013-01-02 03:01:00,
2013-01-01 22:03:00,42.7,33.9,30.00,NW,320,0.0,0.0,71,0.01,CLR,,0.01,WeatherDisplay:10.37,2013-01-02 03:03:00,
2013-01-01 22:04:00,42.6,33.9,30.00,NW,320,0.0,0.0,71,0.01,CLR,,0.01,WeatherDisplay:10.37,2013-01-02 03:04:00,
2013-01-01 22:05:00,42.6,33.9,30.00,NW,320,0.0,0.0,71,0.00,,,0.01,WeatherDisplay:10.37,2013-01-02 03:05:00,
2013-01-01 22:07:00,42.5,34.1,30.00,NW,320,0.0,0.0,72,0.01,CLR,,0.01,WeatherDisplay:10.37,2013-01-02 03:07:00,
2013-01-01 22:09:00,42.4,34.4,30.00,NW,320,0.0,0.0,73,0.01,CLR,,0.01,WeatherDisplay:10.37,2013-01-02 03:09:00,
2013-01-01 22:10:00,42.2,33.5,30.00,NW,320,0.0,0.0,71,0.01,CLR,,0.01,WeatherDisplay:10.37,2013-01-02 03:10:00,
2013-01-01 22:14:00,42.2,33.8,30.00,NW,320,0.0,0.0,72,0.02,RA,,0.02,WeatherDisplay:10.37,2013-01-02 03:14:00,
2013-01-01 22:15:00,42.3,34.3,30.00,NW,320,0.0,0.0,73,0.02,RA,,0.02,WeatherDisplay:10.37,2013-01-02 03:15:00,
2013-01-01 22:16:00,42.2,34.2,30.00,NW,320,0.0,0.0,73,0.02,RA,,0.02,WeatherDisplay:10.37,2013-01-02 03:16:00,
2013-01-01 22:18:00,42.2,34.5,30.00,NW,320,0.0,0.0,74,0.02,RA,,0.02,WeatherDisplay:10.37,2013-01-02 03:18:00,
2013-01-01 22:20:00,42.1,34.5,30.00,NW,320,0.0,0.0,74,0.00,RA,,0.02,WeatherDisplay:10.37,2013-01-02 03:20:00,
2013-01-01 22:23:00,42.0,34.6,30.00,NW,320,0.0,0.0,75,0.02,RA,,0.02,WeatherDisplay:10.37,2013-01-02 03:23:00,
2013-01-01 22:24:00,42.0,35.3,30.00,NW,320,0.0,0.0,77,0.02,,,0.02,WeatherDisplay:10.37,2013-01-02 03:24:00,
2013-01-01 22:26:00,41.8,34.8,30.00,NW,320,0.0,0.0,76,0.02,CLR,,0.02,WeatherDisplay:10.37,2013-01-02 03:26:00,
2013-01-01 22:29:00,41.6,35.2,30.00,NW,320,0.0,0.0,78,0.02,CLR,,0.02,WeatherDisplay:10.37,2013-01-02 03:29:00,
2013-01-01 22:31:00,41.6,34.9,30.00,NW,320,0.0,0.0,77,0.02,CLR,,0.02,WeatherDisplay:10.37,2013-01-02 03:31:00,
2013-01-01 22:32:00,41.7,35.7,30.00,NW,320,0.0,0.0,79,0.02,CLR,,0.02,WeatherDisplay:10.37,2013-01-02 03:32:00,
2013-01-01 22:33:00,41.6,35.2,30.00,NW,320,0.0,0.0,78,0.02,CLR,,0.02,WeatherDisplay:10.37,2013-01-02 03:33:00,
2013-01-01 22:37:00,41.4,35.1,30.00,NNE,21,0.0,0.0,78,0.03,RA,,0.03,WeatherDisplay:10.37,2013-01-02 03:37:00,
2013-01-01 22:38:00,41.5,35.2,30.00,NNE,21,0.0,0.0,78,0.03,RA,,0.03,WeatherDisplay:10.37,2013-01-02 03:38:00,
2013-01-01 22:39:00,41.4,34.7,30.00,NNE,21,0.0,0.0,77,0.03,RA,,0.03,WeatherDisplay:10.37,2013-01-02 03:39:00,
2013-01-01 22:42:00,41.3,34.6,30.00,NNE,21,0.0,0.0,77,0.02,RA,,0.03,WeatherDisplay:10.37,2013-01-02 03:42:00,
2013-01-01 22:44:00,41.3,35.3,30.00,NNE,21,0.0,0.0,79,0.02,RA,,0.03,WeatherDisplay:10.37,2013-01-02 03:44:00,
2013-01-01 22:45:00,41.5,35.8,30.00,NNE,21,0.0,0.0,80,0.02,RA,,0.03,WeatherDisplay:10.37,2013-01-02 03:45:00,
2013-01-01 22:49:00,41.5,36.1,29.99,NNE,21,0.0,0.0,81,0.02,CLR,,0.03,WeatherDisplay:10.37,2013-01-02 03:49:00,
2013-01-01 22:50:00,41.5,36.4,29.99,NNE,21,0.0,0.0,82,0.02,CLR,,0.03,WeatherDisplay:10.37,2013-01-02 03:50:00,
2013-01-01 22:54:00,41.2,36.4,30.00,NNE,21,0.0,0.0,83,0.00,,,0.03,WeatherDisplay:10.37,2013-01-02 03:54:00,
2013-01-01 22:56:00,41.2,36.7,30.00,NNE,21,0.0,0.0,84,0.02,CLR,,0.03,WeatherDisplay:10.37,2013-01-02 03:56:00,
2013-01-01 22:58:00,41.3,37.1,30.00,NNE,21,0.0,0.0,85,0.02,CLR,,0.03,WeatherDisplay:10.37,2013-01-02 03:58:00,
2013-01-01 23:00:00,41.3,37.4,30.00,NNE,21,0.0,0.0,86,0.02,CLR,,0.03,WeatherDisplay:10.37,2013-01-02 04:00:00,
2013-01-01 23:01:00,41.2,37.3,30.00,NNE,21,0.0,0.0,86,0.02,CLR,,0.03,WeatherDisplay:10.37,2013-01-02 04:01:00,
2013-01-01 23:03:00,41.1,37.2,30.00,NNE,21,0.0,0.0,86,0.02,CLR,,0.03,WeatherDisplay:10.37,2013-01-02 04:03:00,
2013-01-01 23:04:00,41.1,37.5,30.00,NNE,21,0.0,0.0,87,0.02,CLR,,0.03,WeatherDisplay:10.37,2013-01-02 04:04:00,
2013-01-01 23:06:00,41.1,37.8,30.00,NNE,21,0.0,0.0,88,0.02,CLR,,0.03,WeatherDisplay:10.37,2013-01-02 04:06:00,
2013-01-01 23:07:00,41.0,37.4,30.00,NNE,21,0.0,0.0,87,0.02,CLR,,0.03,WeatherDisplay:10.37,2013-01-02 04:07:00,
2013-01-01 23:08:00,40.8,37.5,30.00,NNE,21,0.0,0.0,88,0.02,CLR,,0.03,WeatherDisplay:10.37,2013-01-02 04:08:00,
2013-01-01 23:09:00,41.0,37.7,30.00,NNE,21,0.0,0.0,88,0.02,CLR,,0.03,WeatherDisplay:10.37,2013-01-02 04:09:00,
2013-01-01 23:12:00,41.1,37.5,30.00,NNE,21,0.0,0.0,87,0.02,CLR,,0.03,WeatherDisplay:10.37,2013-01-02 04:12:00,
2013-01-01 23:14:00,40.8,37.2,29.99,NNE,21,0.0,0.0,87,0.01,CLR,,0.03,WeatherDisplay:10.37,2013-01-02 04:14:00,
2013-01-01 23:15:00,40.9,37.3,29.99,NNE,21,0.0,0.0,87,0.01,CLR,,0.04,WeatherDisplay:10.37,2013-01-02 04:15:00,
2013-01-01 23:16:00,41.0,37.4,29.99,NNE,21,0.0,0.0,87,0.02,RA,,0.04,WeatherDisplay:10.37,2013-01-02 04:16:00,
2013-01-01 23:20:00,40.8,36.9,29.99,NNE,21,0.0,0.0,86,0.02,RA,,0.04,WeatherDisplay:10.37,2013-01-02 04:20:00,
2013-01-01 23:21:00,40.9,36.7,29.99,NNE,21,0.0,0.0,85,0.02,RA,,0.04,WeatherDisplay:10.37,2013-01-02 04:21:00,
2013-01-01 23:22:00,40.9,36.7,29.99,NNE,21,0.0,0.0,85,0.02,RA,,0.04,WeatherDisplay:10.37,2013-01-02 04:22:00,
2013-01-01 23:26:00,41.0,36.5,29.99,NNE,21,0.0,0.0,84,0.02,,,0.04,WeatherDisplay:10.37,2013-01-02 04:26:00,
2013-01-01 23:27:00,40.9,36.4,29.99,NNE,21,0.0,0.0,84,0.02,,,0.04,WeatherDisplay:10.37,2013-01-02 04:27:00,
2013-01-01 23:28:00,40.9,36.4,29.99,NNE,21,0.0,0.0,84,0.02,CLR,,0.04,WeatherDisplay:10.37,2013-01-02 04:28:00,
2013-01-01 23:31:00,41.0,36.5,29.99,NNE,21,0.0,0.0,84,0.02,CLR,,0.04,WeatherDisplay:10.37,2013-01-02 04:31:00,
2013-01-01 23:34:00,41.0,36.8,30.00,NNE,21,0.0,0.0,85,0.02,CLR,,0.04,WeatherDisplay:10.37,2013-01-02 04:34:00,
2013-01-01 23:36:00,41.0,36.8,29.99,NNE,21,0.0,0.0,85,0.02,CLR,,0.04,WeatherDisplay:10.37,2013-01-02 04:36:00,
2013-01-01 23:37:00,41.0,36.8,29.99,NNE,21,0.0,0.0,85,0.01,CLR,,0.04,WeatherDisplay:10.37,2013-01-02 04:37:00,
2013-01-01 23:39:00,40.9,37.0,29.99,NNE,21,0.0,0.0,86,0.01,CLR,,0.04,WeatherDisplay:10.37,2013-01-02 04:39:00,
2013-01-01 23:40:00,41.0,37.7,30.00,NNE,21,0.0,0.0,88,0.01,CLR,,0.04,WeatherDisplay:10.37,2013-01-02 04:40:00,
2013-01-01 23:41:00,40.9,38.2,30.00,NNE,21,0.0,0.0,90,0.01,CLR,,0.04,WeatherDisplay:10.37,2013-01-02 04:41:00,
2013-01-01 23:44:00,40.9,38.5,30.00,NNE,21,0.0,0.0,91,0.00,,,0.04,WeatherDisplay:10.37,2013-01-02 04:44:00,
2013-01-01 23:45:00,40.8,38.4,30.00,NNE,21,0.0,0.0,91,0.01,CLR,,0.04,WeatherDisplay:10.37,2013-01-02 04:45:00,
2013-01-01 23:47:00,40.9,38.5,29.99,NNE,21,0.0,0.0,91,0.01,CLR,,0.04,WeatherDisplay:10.37,2013-01-02 04:47:00,
2013-01-01 23:49:00,40.9,38.8,29.99,NNE,21,0.0,0.0,92,0.01,CLR,,0.04,WeatherDisplay:10.37,2013-01-02 04:49:00,
2013-01-01 23:50:00,40.8,38.7,29.99,NNE,21,0.0,0.0,92,0.00,,,0.04,WeatherDisplay:10.37,2013-01-02 04:50:00,
2013-01-01 23:52:00,40.7,38.3,29.99,NNE,21,0.0,0.0,91,0.01,CLR,,0.04,WeatherDisplay:10.37,2013-01-02 04:52:00,
2013-01-01 23:54:00,40.8,38.4,29.99,NNE,21,0.0,0.0,91,0.01,CLR,,0.04,WeatherDisplay:10.37,2013-01-02 04:54:00,
2013-01-01 23:55:00,40.7,38.3,29.99,NNE,21,0.0,0.0,91,0.01,CLR,,0.04,WeatherDisplay:10.37,2013-01-02 04:55:00,
2013-01-01 23:58:00,40.7,38.3,29.99,NNE,21,0.0,0.0,91,0.01,CLR,,0.04,WeatherDisplay:10.37,2013-01-02 04:58:00,
2013-01-01 23:59:00,40.8,38.4,29.98,NNE,21,0.0,0.0,91,0.01,CLR,,0.04,WeatherDisplay:10.37,2013-01-02 04:59:00,